Observation data for Snyder SSW on 11/19/2019      Previous  Date       Current Mesonet Observations  Soil Data  Daily Summary Page  Observations in Plain Language
KWT1 190600Z 05002KT 10/02 A2997 RMK A01 T00990018  RH  057%=      5-min Rain = 0
KWT1 190601Z 05002KT 10/02 A2997 RMK A01 T00990017  RH  057%=      5-min Rain = 0
KWT1 190602Z 05002KT 10/02 A2997 RMK A01 T00990017  RH  057%=      5-min Rain = 0
KWT1 190603Z 05002KT 10/02 A2997 RMK A01 T00990017  RH  057%=      5-min Rain = 0
KWT1 190604Z 06001KT 10/02 A2997 RMK A01 T00990017  RH  057%=      5-min Rain = 0
KWT1 190605Z 07001KT 10/02 A2997 RMK A01 T00990017  RH  057%=      5-min Rain = 0
KWT1 190606Z 07001KT 10/02 A2997 RMK A01 T00990017  RH  057%=      5-min Rain = 0
KWT1 190607Z 08001KT 10/02 A2997 RMK A01 T01000017  RH  057%=      5-min Rain = 0
KWT1 190608Z 08002KT 10/02 A2997 RMK A01 T01000017  RH  057%=      5-min Rain = 0
KWT1 190609Z 10002KT 10/02 A2997 RMK A01 T01000018  RH  056%=      5-min Rain = 0
KWT1 190610Z 09002KT 10/02 A2997 RMK A01 T01010018  RH  056%=      5-min Rain = 0
KWT1 190611Z 09002KT 10/02 A2997 RMK A01 T01010018  RH  056%=      5-min Rain = 0
KWT1 190612Z 09001KT 10/02 A2997 RMK A01 T01020018  RH  056%=      5-min Rain = 0
KWT1 190613Z 10002KT 10/02 A2997 RMK A01 T01020018  RH  056%=      5-min Rain = 0
KWT1 190614Z 10001KT 10/02 A2997 RMK A01 T01030018  RH  056%=      5-min Rain = 0
KWT1 190615Z 10001KT 10/02 A2997 RMK A01 T01040018  RH  055%=      5-min Rain = 0
KWT1 190616Z 10002KT 10/02 A2997 RMK A01 T01040018  RH  055%=      5-min Rain = 0
KWT1 190617Z 10001KT 11/02 A2996 RMK A01 T01050018  RH  055%=      5-min Rain = 0
KWT1 190618Z 10002KT 10/02 A2996 RMK A01 T01040018  RH  055%=      5-min Rain = 0
KWT1 190619Z 10002KT 11/02 A2996 RMK A01 T01050018  RH  055%=      5-min Rain = 0
KWT1 190620Z 09002KT 11/02 A2996 RMK A01 T01050018  RH  055%=      5-min Rain = 0
KWT1 190621Z 09002KT 11/02 A2996 RMK A01 T01050018  RH  055%=      5-min Rain = 0
KWT1 190622Z 09002KT 11/02 A2996 RMK A01 T01060019  RH  055%=      5-min Rain = 0
KWT1 190623Z 08002KT 11/02 A2996 RMK A01 T01060019  RH  055%=      5-min Rain = 0
KWT1 190624Z 08002KT 11/02 A2996 RMK A01 T01070019  RH  054%=      5-min Rain = 0
KWT1 190625Z 07002KT 11/02 A2996 RMK A01 T01080019  RH  054%=      5-min Rain = 0
KWT1 190626Z 07002KT 11/02 A2996 RMK A01 T01080019  RH  054%=      5-min Rain = 0
KWT1 190627Z 06002KT 11/02 A2996 RMK A01 T01080019  RH  054%=      5-min Rain = 0
KWT1 190628Z 06002KT 11/02 A2996 RMK A01 T01080019  RH  054%=      5-min Rain = 0
KWT1 190629Z 06002KT 11/02 A2996 RMK A01 T01080019  RH  054%=      5-min Rain = 0
KWT1 190630Z 05002KT 11/02 A2996 RMK A01 T01080018  RH  054%=      5-min Rain = 0
KWT1 190631Z 05002KT 11/02 A2996 RMK A01 T01070018  RH  054%=      5-min Rain = 0
KWT1 190632Z 06002KT 11/02 A2996 RMK A01 T01070018  RH  054%=      5-min Rain = 0
KWT1 190633Z 06002KT 11/02 A2996 RMK A01 T01060018  RH  055%=      5-min Rain = 0
KWT1 190634Z 06002KT 11/02 A2996 RMK A01 T01060018  RH  055%=      5-min Rain = 0
KWT1 190635Z 06003KT 11/02 A2996 RMK A01 T01050018  RH  055%=      5-min Rain = 0
KWT1 190636Z 06003KT 10/02 A2996 RMK A01 T01040018  RH  055%=      5-min Rain = 0
KWT1 190637Z 06003KT 10/02 A2996 RMK A01 T01040018  RH  055%=      5-min Rain = 0
KWT1 190638Z 06002KT 10/02 A2996 RMK A01 T01030018  RH  055%=      5-min Rain = 0
KWT1 190639Z 05002KT 10/02 A2996 RMK A01 T01030018  RH  055%=      5-min Rain = 0
KWT1 190640Z 06002KT 10/02 A2996 RMK A01 T01020017  RH  056%=      5-min Rain = 0
KWT1 190641Z 06002KT 10/02 A2996 RMK A01 T01020018  RH  056%=      5-min Rain = 0
KWT1 190642Z 06002KT 10/02 A2996 RMK A01 T01010017  RH  056%=      5-min Rain = 0
KWT1 190643Z 06002KT 10/02 A2996 RMK A01 T01000017  RH  056%=      5-min Rain = 0
KWT1 190644Z 07002KT 10/02 A2996 RMK A01 T01000018  RH  057%=      5-min Rain = 0
KWT1 190645Z 08002KT 10/02 A2996 RMK A01 T01000018  RH  057%=      5-min Rain = 0
KWT1 190646Z 09002KT 10/02 A2996 RMK A01 T00990019  RH  057%=      5-min Rain = 0
KWT1 190647Z 10002KT 10/02 A2996 RMK A01 T00990019  RH  057%=      5-min Rain = 0
KWT1 190648Z 11002KT 10/02 A2996 RMK A01 T00990019  RH  058%=      5-min Rain = 0
KWT1 190649Z 12002KT 10/02 A2996 RMK A01 T00990020  RH  058%=      5-min Rain = 0
KWT1 190650Z 13002KT 10/02 A2996 RMK A01 T00980019  RH  058%=      5-min Rain = 0
KWT1 190651Z 13003KT 10/02 A2996 RMK A01 T00990019  RH  058%=      5-min Rain = 0
KWT1 190652Z 14002KT 10/02 A2996 RMK A01 T00990020  RH  058%=      5-min Rain = 0
KWT1 190653Z 14003KT 10/02 A2996 RMK A01 T01000020  RH  058%=      5-min Rain = 0
KWT1 190654Z 14003KT 10/02 A2996 RMK A01 T01000020  RH  057%=      5-min Rain = 0
KWT1 190655Z 14003KT 10/02 A2996 RMK A01 T01010020  RH  057%=      5-min Rain = 0
KWT1 190656Z 14003KT 10/02 A2996 RMK A01 T01030021  RH  057%=      5-min Rain = 0
KWT1 190657Z 14003KT 10/02 A2996 RMK A01 T01030021  RH  056%=      5-min Rain = 0
KWT1 190658Z 14003KT 10/02 A2996 RMK A01 T01040021  RH  056%=      5-min Rain = 0
KWT1 190659Z 13003KT 10/02 A2996 RMK A01 T01040021  RH  056%=      5-min Rain = 0
KWT1 190700Z 13003KT 10/02 A2996 RMK A01 T01040020  RH  056%=      5-min Rain = 0
KWT1 190701Z 13003KT 10/02 A2996 RMK A01 T01040021  RH  056%=      5-min Rain = 0
KWT1 190702Z 13003KT 10/02 A2996 RMK A01 T01040021  RH  056%=      5-min Rain = 0
KWT1 190703Z 14003KT 10/02 A2996 RMK A01 T01040021  RH  056%=      5-min Rain = 0
KWT1 190704Z 14003KT 10/02 A2996 RMK A01 T01030020  RH  056%=      5-min Rain = 0
KWT1 190705Z 15003KT 11/02 A2996 RMK A01 T01050022  RH  056%=      5-min Rain = 0
KWT1 190706Z 15003KT 11/02 A2996 RMK A01 T01070022  RH  056%=      5-min Rain = 0
KWT1 190707Z 16004KT 11/02 A2996 RMK A01 T01080021  RH  055%=      5-min Rain = 0
KWT1 190708Z 15004KT 11/02 A2996 RMK A01 T01080021  RH  055%=      5-min Rain = 0
KWT1 190709Z 15005KT 11/02 A2996 RMK A01 T01090021  RH  055%=      5-min Rain = 0
KWT1 190710Z 15005KT 11/02 A2996 RMK A01 T01090021  RH  055%=      5-min Rain = 0
KWT1 190711Z 14005KT 11/02 A2996 RMK A01 T01090021  RH  054%=      5-min Rain = 0
KWT1 190712Z 14004KT 11/02 A2996 RMK A01 T01100021  RH  054%=      5-min Rain = 0
KWT1 190713Z 14004KT 11/02 A2996 RMK A01 T01100021  RH  054%=      5-min Rain = 0
KWT1 190714Z 15004KT 11/02 A2996 RMK A01 T01110021  RH  054%=      5-min Rain = 0
KWT1 190715Z 15004KT 11/02 A2996 RMK A01 T01110021  RH  054%=      5-min Rain = 0
KWT1 190716Z 16004KT 11/02 A2996 RMK A01 T01120021  RH  054%=      5-min Rain = 0
KWT1 190717Z 16005KT 11/02 A2996 RMK A01 T01120021  RH  053%=      5-min Rain = 0
KWT1 190718Z 16004KT 11/02 A2996 RMK A01 T01130021  RH  053%=      5-min Rain = 0
KWT1 190719Z 15004KT 11/02 A2996 RMK A01 T01130021  RH  053%=      5-min Rain = 0
KWT1 190720Z 15004KT 11/02 A2996 RMK A01 T01140021  RH  053%=      5-min Rain = 0
KWT1 190721Z 15004KT 12/02 A2996 RMK A01 T01150022  RH  053%=      5-min Rain = 0
KWT1 190722Z 15005KT 12/02 A2996 RMK A01 T01150022  RH  053%=      5-min Rain = 0
KWT1 190723Z 14004KT 12/02 A2996 RMK A01 T01150021  RH  053%=      5-min Rain = 0
KWT1 190724Z 14004KT 12/02 A2996 RMK A01 T01150021  RH  053%=      5-min Rain = 0
KWT1 190725Z 15004KT 12/02 A2996 RMK A01 T01150021  RH  053%=      5-min Rain = 0
KWT1 190726Z 15004KT 12/02 A2996 RMK A01 T01150022  RH  053%=      5-min Rain = 0
KWT1 190727Z 15004KT 12/02 A2996 RMK A01 T01150022  RH  053%=      5-min Rain = 0
KWT1 190728Z 15003KT 12/02 A2996 RMK A01 T01150022  RH  053%=      5-min Rain = 0
KWT1 190729Z 15003KT 12/02 A2996 RMK A01 T01150022  RH  053%=      5-min Rain = 0
KWT1 190730Z 15003KT 12/02 A2996 RMK A01 T01150022  RH  053%=      5-min Rain = 0
KWT1 190731Z 15003KT 12/02 A2996 RMK A01 T01150022  RH  053%=      5-min Rain = 0
KWT1 190732Z 15003KT 12/02 A2996 RMK A01 T01150022  RH  053%=      5-min Rain = 0
KWT1 190733Z 16003KT 12/02 A2996 RMK A01 T01150023  RH  053%=      5-min Rain = 0
KWT1 190734Z 16003KT 11/02 A2996 RMK A01 T01140022  RH  053%=      5-min Rain = 0
KWT1 190735Z 16004KT 11/02 A2996 RMK A01 T01140023  RH  053%=      5-min Rain = 0
KWT1 190736Z 16004KT 11/02 A2996 RMK A01 T01140023  RH  053%=      5-min Rain = 0
KWT1 190737Z 16004KT 11/02 A2996 RMK A01 T01140023  RH  054%=      5-min Rain = 0
KWT1 190738Z 16004KT 11/02 A2996 RMK A01 T01140023  RH  054%=      5-min Rain = 0
KWT1 190739Z 16004KT 11/02 A2996 RMK A01 T01140023  RH  053%=      5-min Rain = 0
KWT1 190740Z 16004KT 12/02 A2996 RMK A01 T01150023  RH  053%=      5-min Rain = 0
KWT1 190741Z 17004KT 12/02 A2996 RMK A01 T01160023  RH  053%=      5-min Rain = 0
KWT1 190742Z 17005KT 12/02 A2996 RMK A01 T01160023  RH  053%=      5-min Rain = 0
KWT1 190743Z 17005KT 12/02 A2996 RMK A01 T01160023  RH  053%=      5-min Rain = 0
KWT1 190744Z 17005KT 12/02 A2996 RMK A01 T01160023  RH  053%=      5-min Rain = 0
KWT1 190745Z 17005KT 12/02 A2996 RMK A01 T01160023  RH  053%=      5-min Rain = 0
KWT1 190746Z 17005KT 11/02 A2996 RMK A01 T01140022  RH  053%=      5-min Rain = 0
KWT1 190747Z 17006KT 11/02 A2996 RMK A01 T01130022  RH  054%=      5-min Rain = 0
KWT1 190748Z 18006KT 11/02 A2997 RMK A01 T01120023  RH  054%=      5-min Rain = 0
KWT1 190749Z 17006KT 11/02 A2996 RMK A01 T01110023  RH  054%=      5-min Rain = 0
KWT1 190750Z 17006KT 11/02 A2996 RMK A01 T01110023  RH  054%=      5-min Rain = 0
KWT1 190751Z 17006KT 11/02 A2996 RMK A01 T01110023  RH  055%=      5-min Rain = 0
KWT1 190752Z 17006KT 11/02 A2996 RMK A01 T01100023  RH  055%=      5-min Rain = 0
KWT1 190753Z 17006KT 11/02 A2996 RMK A01 T01100024  RH  055%=      5-min Rain = 0
KWT1 190754Z 17006KT 11/02 A2996 RMK A01 T01100024  RH  055%=      5-min Rain = 0
KWT1 190755Z 17006KT 11/02 A2996 RMK A01 T01090024  RH  056%=      5-min Rain = 0
KWT1 190756Z 17006KT 11/02 A2996 RMK A01 T01080024  RH  056%=      5-min Rain = 0
KWT1 190757Z 18007KT 11/02 A2996 RMK A01 T01070024  RH  056%=      5-min Rain = 0
KWT1 190758Z 18008KT 11/02 A2996 RMK A01 T01060024  RH  057%=      5-min Rain = 0
KWT1 190759Z 17008KT 11/02 A2996 RMK A01 T01050024  RH  057%=      5-min Rain = 0
KWT1 190800Z 17007KT 11/02 A2996 RMK A01 T01050024  RH  057%=      5-min Rain = 0
KWT1 190801Z 18008KT 11/02 A2996 RMK A01 T01050024  RH  057%=      5-min Rain = 0
KWT1 190802Z 18008KT 10/02 A2996 RMK A01 T01040024  RH  058%=      5-min Rain = 0
KWT1 190803Z 18008KT 10/02 A2996 RMK A01 T01030024  RH  058%=      5-min Rain = 0
KWT1 190804Z 18008KT 10/03 A2996 RMK A01 T01030025  RH  058%=      5-min Rain = 0
KWT1 190805Z 18008KT 10/03 A2996 RMK A01 T01020025  RH  059%=      5-min Rain = 0
KWT1 190806Z 18008KT 10/03 A2996 RMK A01 T01010026  RH  059%=      5-min Rain = 0
KWT1 190807Z 18009KT 10/03 A2996 RMK A01 T01010026  RH  060%=      5-min Rain = 0
KWT1 190808Z 18009KT 10/03 A2997 RMK A01 T01010027  RH  060%=      5-min Rain = 0
KWT1 190809Z 19009KT 10/03 A2997 RMK A01 T01010028  RH  061%=      5-min Rain = 0
KWT1 190810Z 19009KT 10/03 A2997 RMK A01 T01010028  RH  061%=      5-min Rain = 0
KWT1 190811Z 19009KT 10/03 A2997 RMK A01 T01000028  RH  061%=      5-min Rain = 0
KWT1 190812Z 19009KT 10/03 A2997 RMK A01 T01000028  RH  061%=      5-min Rain = 0
KWT1 190813Z 19009KT 10/03 A2997 RMK A01 T01000028  RH  061%=      5-min Rain = 0
KWT1 190814Z 19009KT 10/03 A2997 RMK A01 T01000028  RH  061%=      5-min Rain = 0
KWT1 190815Z 19009KT 10/03 A2997 RMK A01 T00990028  RH  061%=      5-min Rain = 0
KWT1 190816Z 19009KT 10/03 A2997 RMK A01 T00970027  RH  062%=      5-min Rain = 0
KWT1 190817Z 19008KT 10/03 A2997 RMK A01 T00970027  RH  062%=      5-min Rain = 0
KWT1 190818Z 19008KT 10/03 A2997 RMK A01 T00970027  RH  062%=      5-min Rain = 0
KWT1 190819Z 19007KT 10/03 A2997 RMK A01 T00970027  RH  062%=      5-min Rain = 0
KWT1 190820Z 19007KT 10/03 A2997 RMK A01 T00970027  RH  062%=      5-min Rain = 0
KWT1 190821Z 19007KT 10/03 A2997 RMK A01 T00960027  RH  062%=      5-min Rain = 0
KWT1 190822Z 18006KT 10/03 A2997 RMK A01 T00960027  RH  062%=      5-min Rain = 0
KWT1 190823Z 18006KT 10/03 A2997 RMK A01 T00950026  RH  062%=      5-min Rain = 0
KWT1 190824Z 18006KT 09/03 A2997 RMK A01 T00940026  RH  062%=      5-min Rain = 0
KWT1 190825Z 18006KT 09/03 A2997 RMK A01 T00930025  RH  062%=      5-min Rain = 0
KWT1 190826Z 18006KT 09/03 A2997 RMK A01 T00930025  RH  063%=      5-min Rain = 0
KWT1 190827Z 18006KT 09/03 A2997 RMK A01 T00930025  RH  063%=      5-min Rain = 0
KWT1 190828Z 18007KT 09/03 A2997 RMK A01 T00930025  RH  063%=      5-min Rain = 0
KWT1 190829Z 18007KT 09/03 A2997 RMK A01 T00920025  RH  063%=      5-min Rain = 0
KWT1 190830Z 18007KT 09/03 A2997 RMK A01 T00920025  RH  063%=      5-min Rain = 0
KWT1 190831Z 18007KT 09/03 A2997 RMK A01 T00920025  RH  063%=      5-min Rain = 0
KWT1 190832Z 18007KT 09/02 A2997 RMK A01 T00910024  RH  063%=      5-min Rain = 0
KWT1 190833Z 18007KT 09/02 A2997 RMK A01 T00910024  RH  063%=      5-min Rain = 0
KWT1 190834Z 18007KT 09/02 A2997 RMK A01 T00910024  RH  063%=      5-min Rain = 0
KWT1 190835Z 18007KT 09/02 A2997 RMK A01 T00910024  RH  063%=      5-min Rain = 0
KWT1 190836Z 18007KT 09/02 A2997 RMK A01 T00910024  RH  063%=      5-min Rain = 0
KWT1 190837Z 18007KT 09/02 A2997 RMK A01 T00910024  RH  063%=      5-min Rain = 0
KWT1 190838Z 18007KT 09/03 A2997 RMK A01 T00920025  RH  063%=      5-min Rain = 0
KWT1 190839Z 18007KT 09/02 A2997 RMK A01 T00930024  RH  062%=      5-min Rain = 0
KWT1 190840Z 18007KT 09/02 A2997 RMK A01 T00920024  RH  063%=      5-min Rain = 0
KWT1 190841Z 18007KT 09/03 A2997 RMK A01 T00920025  RH  063%=      5-min Rain = 0
KWT1 190842Z 18007KT 09/02 A2997 RMK A01 T00910024  RH  063%=      5-min Rain = 0
KWT1 190843Z 18007KT 09/02 A2997 RMK A01 T00910024  RH  063%=      5-min Rain = 0
KWT1 190844Z 19007KT 09/02 A2997 RMK A01 T00900024  RH  063%=      5-min Rain = 0
KWT1 190845Z 19007KT 09/02 A2997 RMK A01 T00890024  RH  064%=      5-min Rain = 0
KWT1 190846Z 19007KT 09/02 A2997 RMK A01 T00880024  RH  064%=      5-min Rain = 0
KWT1 190847Z 19007KT 09/03 A2998 RMK A01 T00880025  RH  065%=      5-min Rain = 0
KWT1 190848Z 19007KT 09/02 A2998 RMK A01 T00870024  RH  065%=      5-min Rain = 0
KWT1 190849Z 20007KT 09/02 A2998 RMK A01 T00870024  RH  065%=      5-min Rain = 0
KWT1 190850Z 19007KT 09/03 A2998 RMK A01 T00870025  RH  065%=      5-min Rain = 0
KWT1 190851Z 20007KT 09/03 A2998 RMK A01 T00870025  RH  065%=      5-min Rain = 0
KWT1 190852Z 20007KT 09/03 A2998 RMK A01 T00860025  RH  065%=      5-min Rain = 0
KWT1 190853Z 20007KT 09/03 A2997 RMK A01 T00860025  RH  065%=      5-min Rain = 0
KWT1 190854Z 20007KT 09/03 A2997 RMK A01 T00860025  RH  066%=      5-min Rain = 0
KWT1 190855Z 20007KT 09/03 A2997 RMK A01 T00850025  RH  066%=      5-min Rain = 0
KWT1 190856Z 20007KT 08/03 A2997 RMK A01 T00840026  RH  066%=      5-min Rain = 0
KWT1 190857Z 20007KT 08/03 A2997 RMK A01 T00840026  RH  067%=      5-min Rain = 0
KWT1 190858Z 20007KT 08/03 A2997 RMK A01 T00830026  RH  067%=      5-min Rain = 0
KWT1 190859Z 20007KT 08/03 A2997 RMK A01 T00830026  RH  067%=      5-min Rain = 0
KWT1 190900Z 20007KT 08/03 A2997 RMK A01 T00830026  RH  068%=      5-min Rain = 0
KWT1 190901Z 20007KT 08/03 A2997 RMK A01 T00820026  RH  068%=      5-min Rain = 0
KWT1 190902Z 20006KT 08/03 A2997 RMK A01 T00820026  RH  068%=      5-min Rain = 0
KWT1 190903Z 20007KT 08/03 A2997 RMK A01 T00810026  RH  068%=      5-min Rain = 0
KWT1 190904Z 20007KT 08/03 A2997 RMK A01 T00810026  RH  068%=      5-min Rain = 0
KWT1 190905Z 20007KT 08/03 A2997 RMK A01 T00800026  RH  069%=      5-min Rain = 0
KWT1 190906Z 20007KT 08/03 A2997 RMK A01 T00800026  RH  069%=      5-min Rain = 0
KWT1 190907Z 19007KT 08/03 A2997 RMK A01 T00800026  RH  069%=      5-min Rain = 0
KWT1 190908Z 19007KT 08/03 A2997 RMK A01 T00800026  RH  069%=      5-min Rain = 0
KWT1 190909Z 19007KT 08/03 A2997 RMK A01 T00800026  RH  069%=      5-min Rain = 0
KWT1 190910Z 19007KT 08/03 A2997 RMK A01 T00800027  RH  069%=      5-min Rain = 0
KWT1 190911Z 19007KT 08/03 A2997 RMK A01 T00810027  RH  069%=      5-min Rain = 0
KWT1 190912Z 19007KT 08/03 A2997 RMK A01 T00820027  RH  069%=      5-min Rain = 0
KWT1 190913Z 19007KT 08/03 A2997 RMK A01 T00820028  RH  068%=      5-min Rain = 0
KWT1 190914Z 20006KT 08/03 A2997 RMK A01 T00830028  RH  068%=      5-min Rain = 0
KWT1 190915Z 19006KT 08/03 A2997 RMK A01 T00840028  RH  068%=      5-min Rain = 0
KWT1 190916Z 19006KT 09/03 A2997 RMK A01 T00850028  RH  068%=      5-min Rain = 0
KWT1 190917Z 19006KT 09/03 A2997 RMK A01 T00850028  RH  067%=      5-min Rain = 0
KWT1 190918Z 19006KT 09/03 A2997 RMK A01 T00850028  RH  067%=      5-min Rain = 0
KWT1 190919Z 19005KT 09/03 A2997 RMK A01 T00850028  RH  067%=      5-min Rain = 0
KWT1 190920Z 19005KT 09/03 A2997 RMK A01 T00850028  RH  067%=      5-min Rain = 0
KWT1 190921Z 18004KT 09/03 A2997 RMK A01 T00860028  RH  067%=      5-min Rain = 0
KWT1 190922Z 17003KT 09/03 A2997 RMK A01 T00860027  RH  067%=      5-min Rain = 0
KWT1 190923Z 16003KT 09/03 A2997 RMK A01 T00860027  RH  067%=      5-min Rain = 0
KWT1 190924Z 15002KT 09/03 A2997 RMK A01 T00850027  RH  067%=      5-min Rain = 0
KWT1 190925Z 14002KT 08/03 A2997 RMK A01 T00840027  RH  067%=      5-min Rain = 0
KWT1 190926Z 12002KT 08/03 A2997 RMK A01 T00820025  RH  067%=      5-min Rain = 0
KWT1 190927Z 14002KT 08/02 A2997 RMK A01 T00800024  RH  068%=      5-min Rain = 0
KWT1 190928Z 14003KT 08/02 A2997 RMK A01 T00790024  RH  068%=      5-min Rain = 0
KWT1 190929Z 16003KT 08/03 A2997 RMK A01 T00790025  RH  068%=      5-min Rain = 0
KWT1 190930Z 17004KT 08/03 A2997 RMK A01 T00800025  RH  068%=      5-min Rain = 0
KWT1 190931Z 17004KT 08/03 A2997 RMK A01 T00820026  RH  068%=      5-min Rain = 0
KWT1 190932Z 18004KT 08/03 A2997 RMK A01 T00840027  RH  067%=      5-min Rain = 0
KWT1 190933Z 18005KT 09/03 A2997 RMK A01 T00850026  RH  066%=      5-min Rain = 0
KWT1 190934Z 19005KT 09/03 A2997 RMK A01 T00850026  RH  066%=      5-min Rain = 0
KWT1 190935Z 19005KT 09/03 A2997 RMK A01 T00850026  RH  066%=      5-min Rain = 0
KWT1 190936Z 19006KT 09/03 A2997 RMK A01 T00850026  RH  066%=      5-min Rain = 0
KWT1 190937Z 19006KT 09/03 A2997 RMK A01 T00850026  RH  066%=      5-min Rain = 0
KWT1 190938Z 19006KT 09/03 A2997 RMK A01 T00860026  RH  066%=      5-min Rain = 0
KWT1 190939Z 19006KT 09/03 A2997 RMK A01 T00860025  RH  066%=      5-min Rain = 0
KWT1 190940Z 19006KT 09/03 A2997 RMK A01 T00850025  RH  066%=      5-min Rain = 0
KWT1 190941Z 19007KT 08/03 A2997 RMK A01 T00840025  RH  066%=      5-min Rain = 0
KWT1 190942Z 19007KT 08/02 A2997 RMK A01 T00840024  RH  066%=      5-min Rain = 0
KWT1 190943Z 19007KT 08/02 A2997 RMK A01 T00830024  RH  066%=      5-min Rain = 0
KWT1 190944Z 19007KT 08/02 A2997 RMK A01 T00820024  RH  067%=      5-min Rain = 0
KWT1 190945Z 19007KT 08/02 A2997 RMK A01 T00820024  RH  067%=      5-min Rain = 0
KWT1 190946Z 19007KT 08/02 A2997 RMK A01 T00810023  RH  067%=      5-min Rain = 0
KWT1 190947Z 19007KT 08/02 A2997 RMK A01 T00800023  RH  067%=      5-min Rain = 0
KWT1 190948Z 19007KT 08/02 A2997 RMK A01 T00800023  RH  067%=      5-min Rain = 0
KWT1 190949Z 18007KT 08/02 A2997 RMK A01 T00790023  RH  068%=      5-min Rain = 0
KWT1 190950Z 18007KT 08/02 A2997 RMK A01 T00780023  RH  068%=      5-min Rain = 0
KWT1 190951Z 18006KT 08/02 A2997 RMK A01 T00770023  RH  068%=      5-min Rain = 0
KWT1 190952Z 18006KT 08/02 A2997 RMK A01 T00770023  RH  069%=      5-min Rain = 0
KWT1 190953Z 18006KT 08/02 A2997 RMK A01 T00760023  RH  069%=      5-min Rain = 0
KWT1 190954Z 18006KT 08/02 A2997 RMK A01 T00750023  RH  070%=      5-min Rain = 0
KWT1 190955Z 18007KT 08/02 A2997 RMK A01 T00750024  RH  070%=      5-min Rain = 0
KWT1 190956Z 18007KT 07/02 A2997 RMK A01 T00740024  RH  070%=      5-min Rain = 0
KWT1 190957Z 17007KT 08/03 A2997 RMK A01 T00750025  RH  070%=      5-min Rain = 0
KWT1 190958Z 18007KT 07/02 A2997 RMK A01 T00740024  RH  071%=      5-min Rain = 0
KWT1 190959Z 18007KT 07/03 A2996 RMK A01 T00740025  RH  071%=      5-min Rain = 0
KWT1 191000Z 18007KT 07/03 A2996 RMK A01 T00740025  RH  071%=      5-min Rain = 0
KWT1 191001Z 18008KT 07/02 A2996 RMK A01 T00740024  RH  071%=      5-min Rain = 0
KWT1 191002Z 18008KT 08/03 A2996 RMK A01 T00750025  RH  070%=      5-min Rain = 0
KWT1 191003Z 18008KT 08/02 A2996 RMK A01 T00750024  RH  070%=      5-min Rain = 0
KWT1 191004Z 18008KT 08/02 A2996 RMK A01 T00760024  RH  070%=      5-min Rain = 0
KWT1 191005Z 18008KT 08/03 A2996 RMK A01 T00760025  RH  070%=      5-min Rain = 0
KWT1 191006Z 18008KT 08/03 A2996 RMK A01 T00760025  RH  070%=      5-min Rain = 0
KWT1 191007Z 18008KT 08/03 A2996 RMK A01 T00760025  RH  070%=      5-min Rain = 0
KWT1 191008Z 18008KT 08/03 A2996 RMK A01 T00760025  RH  070%=      5-min Rain = 0
KWT1 191009Z 18008KT 08/03 A2996 RMK A01 T00760025  RH  070%=      5-min Rain = 0
KWT1 191010Z 18008KT 08/03 A2996 RMK A01 T00760025  RH  070%=      5-min Rain = 0
KWT1 191011Z 18007KT 08/03 A2996 RMK A01 T00760025  RH  070%=      5-min Rain = 0
KWT1 191012Z 18007KT 08/03 A2996 RMK A01 T00770025  RH  070%=      5-min Rain = 0
KWT1 191013Z 18007KT 08/03 A2996 RMK A01 T00760025  RH  070%=      5-min Rain = 0
KWT1 191014Z 18007KT 08/03 A2996 RMK A01 T00760025  RH  070%=      5-min Rain = 0
KWT1 191015Z 18007KT 08/03 A2996 RMK A01 T00760025  RH  070%=      5-min Rain = 0
KWT1 191016Z 17007KT 08/03 A2996 RMK A01 T00760025  RH  070%=      5-min Rain = 0
KWT1 191017Z 17006KT 08/03 A2996 RMK A01 T00750025  RH  070%=      5-min Rain = 0
KWT1 191018Z 17006KT 08/03 A2996 RMK A01 T00750025  RH  071%=      5-min Rain = 0
KWT1 191019Z 17006KT 07/03 A2996 RMK A01 T00740025  RH  071%=      5-min Rain = 0
KWT1 191020Z 17006KT 07/03 A2996 RMK A01 T00730025  RH  072%=      5-min Rain = 0
KWT1 191021Z 17006KT 07/03 A2996 RMK A01 T00720025  RH  072%=      5-min Rain = 0
KWT1 191022Z 17005KT 07/03 A2996 RMK A01 T00720025  RH  072%=      5-min Rain = 0
KWT1 191023Z 17006KT 07/03 A2996 RMK A01 T00710025  RH  072%=      5-min Rain = 0
KWT1 191024Z 17006KT 07/03 A2996 RMK A01 T00710025  RH  072%=      5-min Rain = 0
KWT1 191025Z 17006KT 07/03 A2996 RMK A01 T00710025  RH  072%=      5-min Rain = 0
KWT1 191026Z 17006KT 07/03 A2996 RMK A01 T00710025  RH  073%=      5-min Rain = 0
KWT1 191027Z 18006KT 07/02 A2996 RMK A01 T00710024  RH  072%=      5-min Rain = 0
KWT1 191028Z 18006KT 07/03 A2996 RMK A01 T00710025  RH  072%=      5-min Rain = 0
KWT1 191029Z 17006KT 07/02 A2996 RMK A01 T00710024  RH  072%=      5-min Rain = 0
KWT1 191030Z 17007KT 07/02 A2996 RMK A01 T00720024  RH  072%=      5-min Rain = 0
KWT1 191031Z 17007KT 07/02 A2996 RMK A01 T00720024  RH  072%=      5-min Rain = 0
KWT1 191032Z 18007KT 07/02 A2996 RMK A01 T00720024  RH  072%=      5-min Rain = 0
KWT1 191033Z 18007KT 07/02 A2995 RMK A01 T00720024  RH  071%=      5-min Rain = 0
KWT1 191034Z 18007KT 07/02 A2995 RMK A01 T00730024  RH  071%=      5-min Rain = 0
KWT1 191035Z 18007KT 07/02 A2995 RMK A01 T00730024  RH  071%=      5-min Rain = 0
KWT1 191036Z 18007KT 07/02 A2996 RMK A01 T00730024  RH  071%=      5-min Rain = 0
KWT1 191037Z 18006KT 07/02 A2996 RMK A01 T00730024  RH  071%=      5-min Rain = 0
KWT1 191038Z 18006KT 07/02 A2996 RMK A01 T00730024  RH  071%=      5-min Rain = 0
KWT1 191039Z 18006KT 07/02 A2996 RMK A01 T00740024  RH  071%=      5-min Rain = 0
KWT1 191040Z 18006KT 07/02 A2996 RMK A01 T00740024  RH  070%=      5-min Rain = 0
KWT1 191041Z 18006KT 08/02 A2996 RMK A01 T00750024  RH  070%=      5-min Rain = 0
KWT1 191042Z 18006KT 08/02 A2996 RMK A01 T00750024  RH  070%=      5-min Rain = 0
KWT1 191043Z 18006KT 08/02 A2996 RMK A01 T00750024  RH  070%=      5-min Rain = 0
KWT1 191044Z 18005KT 07/02 A2996 RMK A01 T00740024  RH  070%=      5-min Rain = 0
KWT1 191045Z 18006KT 07/02 A2996 RMK A01 T00730023  RH  070%=      5-min Rain = 0
KWT1 191046Z 18006KT 07/02 A2996 RMK A01 T00730024  RH  071%=      5-min Rain = 0
KWT1 191047Z 18006KT 07/02 A2996 RMK A01 T00730023  RH  071%=      5-min Rain = 0
KWT1 191048Z 18006KT 07/02 A2996 RMK A01 T00720023  RH  071%=      5-min Rain = 0
KWT1 191049Z 18006KT 07/02 A2996 RMK A01 T00710023  RH  071%=      5-min Rain = 0
KWT1 191050Z 18006KT 07/02 A2996 RMK A01 T00710023  RH  072%=      5-min Rain = 0
KWT1 191051Z 18006KT 07/02 A2996 RMK A01 T00710023  RH  072%=      5-min Rain = 0
KWT1 191052Z 18006KT 07/02 A2996 RMK A01 T00700023  RH  072%=      5-min Rain = 0
KWT1 191053Z 18007KT 07/02 A2996 RMK A01 T00700023  RH  072%=      5-min Rain = 0
KWT1 191054Z 17007KT 07/02 A2996 RMK A01 T00690023  RH  072%=      5-min Rain = 0
KWT1 191055Z 18007KT 07/02 A2996 RMK A01 T00690023  RH  072%=      5-min Rain = 0
KWT1 191056Z 18007KT 07/02 A2996 RMK A01 T00690023  RH  073%=      5-min Rain = 0
KWT1 191057Z 17007KT 07/02 A2996 RMK A01 T00680023  RH  073%=      5-min Rain = 0
KWT1 191058Z 17008KT 07/02 A2996 RMK A01 T00680023  RH  073%=      5-min Rain = 0
KWT1 191059Z 17008KT 07/02 A2996 RMK A01 T00680023  RH  073%=      5-min Rain = 0
KWT1 191100Z 18008KT 07/02 A2996 RMK A01 T00680023  RH  073%=      5-min Rain = 0
KWT1 191101Z 18008KT 07/02 A2996 RMK A01 T00680023  RH  073%=      5-min Rain = 0
KWT1 191102Z 18008KT 07/02 A2996 RMK A01 T00690023  RH  073%=      5-min Rain = 0
KWT1 191103Z 18007KT 07/02 A2996 RMK A01 T00690023  RH  073%=      5-min Rain = 0
KWT1 191104Z 18007KT 07/02 A2996 RMK A01 T00690023  RH  072%=      5-min Rain = 0
KWT1 191105Z 18007KT 07/02 A2996 RMK A01 T00700023  RH  072%=      5-min Rain = 0
KWT1 191106Z 18007KT 07/02 A2996 RMK A01 T00700024  RH  072%=      5-min Rain = 0
KWT1 191107Z 18007KT 07/02 A2996 RMK A01 T00700024  RH  072%=      5-min Rain = 0
KWT1 191108Z 18007KT 07/02 A2996 RMK A01 T00710024  RH  072%=      5-min Rain = 0
KWT1 191109Z 18007KT 07/02 A2996 RMK A01 T00710024  RH  072%=      5-min Rain = 0
KWT1 191110Z 18007KT 07/02 A2996 RMK A01 T00710024  RH  072%=      5-min Rain = 0
KWT1 191111Z 18007KT 07/03 A2996 RMK A01 T00710025  RH  072%=      5-min Rain = 0
KWT1 191112Z 18007KT 07/03 A2996 RMK A01 T00710025  RH  072%=      5-min Rain = 0
KWT1 191113Z 18007KT 07/03 A2996 RMK A01 T00710025  RH  072%=      5-min Rain = 0
KWT1 191114Z 18006KT 07/03 A2996 RMK A01 T00710025  RH  072%=      5-min Rain = 0
KWT1 191115Z 18007KT 07/02 A2996 RMK A01 T00710024  RH  072%=      5-min Rain = 0
KWT1 191116Z 18007KT 07/03 A2996 RMK A01 T00710025  RH  072%=      5-min Rain = 0
KWT1 191117Z 18007KT 07/02 A2996 RMK A01 T00710024  RH  072%=      5-min Rain = 0
KWT1 191118Z 18007KT 07/02 A2996 RMK A01 T00700024  RH  072%=      5-min Rain = 0
KWT1 191119Z 17007KT 07/02 A2996 RMK A01 T00700024  RH  073%=      5-min Rain = 0
KWT1 191120Z 18007KT 07/02 A2996 RMK A01 T00700024  RH  073%=      5-min Rain = 0
KWT1 191121Z 17007KT 07/02 A2996 RMK A01 T00700024  RH  073%=      5-min Rain = 0
KWT1 191122Z 17007KT 07/02 A2996 RMK A01 T00700024  RH  072%=      5-min Rain = 0
KWT1 191123Z 17007KT 07/02 A2996 RMK A01 T00700024  RH  072%=      5-min Rain = 0
KWT1 191124Z 17007KT 07/02 A2996 RMK A01 T00700024  RH  072%=      5-min Rain = 0
KWT1 191125Z 17007KT 07/02 A2996 RMK A01 T00700024  RH  072%=      5-min Rain = 0
KWT1 191126Z 17007KT 07/02 A2996 RMK A01 T00700024  RH  072%=      5-min Rain = 0
KWT1 191127Z 17007KT 07/02 A2996 RMK A01 T00700023  RH  072%=      5-min Rain = 0
KWT1 191128Z 17006KT 07/02 A2996 RMK A01 T00700024  RH  072%=      5-min Rain = 0
KWT1 191129Z 17006KT 07/02 A2996 RMK A01 T00700024  RH  072%=      5-min Rain = 0
KWT1 191130Z 17006KT 07/02 A2996 RMK A01 T00700024  RH  072%=      5-min Rain = 0
KWT1 191131Z 17006KT 07/02 A2996 RMK A01 T00700024  RH  072%=      5-min Rain = 0
KWT1 191132Z 17006KT 07/02 A2996 RMK A01 T00700024  RH  073%=      5-min Rain = 0
KWT1 191133Z 17007KT 07/02 A2996 RMK A01 T00700024  RH  073%=      5-min Rain = 0
KWT1 191134Z 17007KT 07/02 A2996 RMK A01 T00700024  RH  073%=      5-min Rain = 0
KWT1 191135Z 17006KT 07/02 A2996 RMK A01 T00700024  RH  073%=      5-min Rain = 0
KWT1 191136Z 17006KT 07/02 A2996 RMK A01 T00690024  RH  073%=      5-min Rain = 0
KWT1 191137Z 17006KT 07/02 A2996 RMK A01 T00690024  RH  073%=      5-min Rain = 0
KWT1 191138Z 17006KT 07/02 A2996 RMK A01 T00690024  RH  073%=      5-min Rain = 0
KWT1 191139Z 17006KT 07/02 A2996 RMK A01 T00690024  RH  073%=      5-min Rain = 0
KWT1 191140Z 17006KT 07/02 A2996 RMK A01 T00690024  RH  073%=      5-min Rain = 0
KWT1 191141Z 17006KT 07/02 A2996 RMK A01 T00690024  RH  073%=      5-min Rain = 0
KWT1 191142Z 17006KT 07/02 A2996 RMK A01 T00690024  RH  073%=      5-min Rain = 0
KWT1 191143Z 17006KT 07/02 A2996 RMK A01 T00690024  RH  073%=      5-min Rain = 0
KWT1 191144Z 17006KT 07/02 A2996 RMK A01 T00690024  RH  073%=      5-min Rain = 0
KWT1 191145Z 17006KT 07/02 A2996 RMK A01 T00690024  RH  073%=      5-min Rain = 0
KWT1 191146Z 17005KT 07/02 A2996 RMK A01 T00690024  RH  073%=      5-min Rain = 0
KWT1 191147Z 17005KT 07/02 A2996 RMK A01 T00690024  RH  073%=      5-min Rain = 0
KWT1 191148Z 17005KT 07/02 A2996 RMK A01 T00680024  RH  073%=      5-min Rain = 0
KWT1 191149Z 16005KT 07/02 A2996 RMK A01 T00680024  RH  073%=      5-min Rain = 0
KWT1 191150Z 16005KT 07/02 A2996 RMK A01 T00680024  RH  073%=      5-min Rain = 0
KWT1 191151Z 17005KT 07/02 A2996 RMK A01 T00680024  RH  073%=      5-min Rain = 0
KWT1 191152Z 17005KT 07/02 A2996 RMK A01 T00680024  RH  073%=      5-min Rain = 0
KWT1 191153Z 17005KT 07/02 A2996 RMK A01 T00680024  RH  073%=      5-min Rain = 0
KWT1 191154Z 17005KT 07/02 A2996 RMK A01 T00690024  RH  073%=      5-min Rain = 0
KWT1 191155Z 17005KT 07/02 A2996 RMK A01 T00690024  RH  073%=      5-min Rain = 0
KWT1 191156Z 17005KT 07/02 A2996 RMK A01 T00690024  RH  073%=      5-min Rain = 0
KWT1 191157Z 17005KT 07/02 A2996 RMK A01 T00690023  RH  073%=      5-min Rain = 0
KWT1 191158Z 17005KT 07/02 A2996 RMK A01 T00690024  RH  073%=      5-min Rain = 0
KWT1 191159Z 17005KT 07/02 A2996 RMK A01 T00700024  RH  073%=      5-min Rain = 0
KWT1 191200Z 17005KT 07/02 A2996 RMK A01 T00700024  RH  073%=      5-min Rain = 0
KWT1 191201Z 17005KT 07/02 A2996 RMK A01 T00700024  RH  073%=      5-min Rain = 0
KWT1 191202Z 17005KT 07/02 A2996 RMK A01 T00700024  RH  072%=      5-min Rain = 0
KWT1 191203Z 17005KT 07/02 A2996 RMK A01 T00700024  RH  072%=      5-min Rain = 0
KWT1 191204Z 17006KT 07/02 A2996 RMK A01 T00700024  RH  072%=      5-min Rain = 0
KWT1 191205Z 17006KT 07/02 A2996 RMK A01 T00700024  RH  072%=      5-min Rain = 0
KWT1 191206Z 17006KT 07/02 A2996 RMK A01 T00690023  RH  072%=      5-min Rain = 0
KWT1 191207Z 17006KT 07/02 A2996 RMK A01 T00690023  RH  073%=      5-min Rain = 0
KWT1 191208Z 17006KT 07/02 A2996 RMK A01 T00680023  RH  073%=      5-min Rain = 0
KWT1 191209Z 17006KT 07/02 A2996 RMK A01 T00690023  RH  073%=      5-min Rain = 0
KWT1 191210Z 17006KT 07/02 A2996 RMK A01 T00680023  RH  073%=      5-min Rain = 0
KWT1 191211Z 17006KT 07/02 A2996 RMK A01 T00680023  RH  073%=      5-min Rain = 0
KWT1 191212Z 17006KT 07/02 A2996 RMK A01 T00680023  RH  073%=      5-min Rain = 0
KWT1 191213Z 18006KT 07/02 A2996 RMK A01 T00670022  RH  073%=      5-min Rain = 0
KWT1 191214Z 18006KT 07/02 A2996 RMK A01 T00660022  RH  073%=      5-min Rain = 0
KWT1 191215Z 18006KT 07/02 A2996 RMK A01 T00670023  RH  073%=      5-min Rain = 0
KWT1 191216Z 18006KT 07/02 A2996 RMK A01 T00660022  RH  073%=      5-min Rain = 0
KWT1 191217Z 18006KT 07/02 A2996 RMK A01 T00650022  RH  074%=      5-min Rain = 0
KWT1 191218Z 18006KT 07/02 A2996 RMK A01 T00650022  RH  074%=      5-min Rain = 0
KWT1 191219Z 18006KT 07/02 A2996 RMK A01 T00650022  RH  074%=      5-min Rain = 0
KWT1 191220Z 18006KT 07/02 A2996 RMK A01 T00650022  RH  074%=      5-min Rain = 0
KWT1 191221Z 18006KT 06/02 A2996 RMK A01 T00640022  RH  074%=      5-min Rain = 0
KWT1 191222Z 18006KT 07/02 A2996 RMK A01 T00650022  RH  074%=      5-min Rain = 0
KWT1 191223Z 18006KT 07/02 A2996 RMK A01 T00650023  RH  075%=      5-min Rain = 0
KWT1 191224Z 18006KT 06/02 A2996 RMK A01 T00640022  RH  075%=      5-min Rain = 0
KWT1 191225Z 18006KT 06/02 A2996 RMK A01 T00640023  RH  075%=      5-min Rain = 0
KWT1 191226Z 18006KT 06/02 A2997 RMK A01 T00640023  RH  075%=      5-min Rain = 0
KWT1 191227Z 18005KT 06/02 A2997 RMK A01 T00630022  RH  075%=      5-min Rain = 0
KWT1 191228Z 18005KT 06/02 A2997 RMK A01 T00630022  RH  075%=      5-min Rain = 0
KWT1 191229Z 18005KT 06/02 A2997 RMK A01 T00630022  RH  075%=      5-min Rain = 0
KWT1 191230Z 18005KT 06/02 A2997 RMK A01 T00630023  RH  076%=      5-min Rain = 0
KWT1 191231Z 18005KT 06/02 A2997 RMK A01 T00620023  RH  076%=      5-min Rain = 0
KWT1 191232Z 18005KT 06/02 A2997 RMK A01 T00620023  RH  076%=      5-min Rain = 0
KWT1 191233Z 18005KT 06/02 A2997 RMK A01 T00620023  RH  076%=      5-min Rain = 0
KWT1 191234Z 19004KT 06/02 A2997 RMK A01 T00620023  RH  076%=      5-min Rain = 0
KWT1 191235Z 19004KT 06/02 A2997 RMK A01 T00620023  RH  076%=      5-min Rain = 0
KWT1 191236Z 19004KT 06/02 A2997 RMK A01 T00620023  RH  076%=      5-min Rain = 0
KWT1 191237Z 19004KT 06/02 A2997 RMK A01 T00630024  RH  076%=      5-min Rain = 0
KWT1 191238Z 19004KT 06/02 A2997 RMK A01 T00640024  RH  076%=      5-min Rain = 0
KWT1 191239Z 19004KT 06/02 A2997 RMK A01 T00640024  RH  075%=      5-min Rain = 0
KWT1 191240Z 19003KT 07/02 A2997 RMK A01 T00650024  RH  075%=      5-min Rain = 0
KWT1 191241Z 19003KT 07/02 A2997 RMK A01 T00650024  RH  075%=      5-min Rain = 0
KWT1 191242Z 19003KT 07/03 A2997 RMK A01 T00660025  RH  075%=      5-min Rain = 0
KWT1 191243Z 19003KT 07/02 A2997 RMK A01 T00670024  RH  074%=      5-min Rain = 0
KWT1 191244Z 19003KT 07/02 A2997 RMK A01 T00660024  RH  074%=      5-min Rain = 0
KWT1 191245Z 19003KT 07/02 A2997 RMK A01 T00660023  RH  074%=      5-min Rain = 0
KWT1 191246Z 19002KT 07/02 A2997 RMK A01 T00660023  RH  074%=      5-min Rain = 0
KWT1 191247Z 19002KT 06/02 A2997 RMK A01 T00640022  RH  074%=      5-min Rain = 0
KWT1 191248Z 20002KT 06/02 A2997 RMK A01 T00620021  RH  075%=      5-min Rain = 0
KWT1 191249Z 20002KT 06/02 A2998 RMK A01 T00600021  RH  076%=      5-min Rain = 0
KWT1 191250Z 20002KT 06/02 A2998 RMK A01 T00600021  RH  076%=      5-min Rain = 0
KWT1 191251Z 21002KT 06/02 A2998 RMK A01 T00590021  RH  077%=      5-min Rain = 0
KWT1 191252Z 21002KT 06/02 A2998 RMK A01 T00580022  RH  077%=      5-min Rain = 0
KWT1 191253Z 22002KT 06/02 A2998 RMK A01 T00580022  RH  078%=      5-min Rain = 0
KWT1 191254Z 22001KT 06/02 A2998 RMK A01 T00580023  RH  078%=      5-min Rain = 0
KWT1 191255Z 23001KT 06/02 A2998 RMK A01 T00590023  RH  078%=      5-min Rain = 0
KWT1 191256Z 23001KT 06/02 A2998 RMK A01 T00600024  RH  077%=      5-min Rain = 0
KWT1 191257Z 23002KT 06/02 A2998 RMK A01 T00610024  RH  077%=      5-min Rain = 0
KWT1 191258Z 23001KT 06/02 A2998 RMK A01 T00620024  RH  077%=      5-min Rain = 0
KWT1 191259Z 22002KT 06/02 A2998 RMK A01 T00620023  RH  076%=      5-min Rain = 0
KWT1 191300Z 22002KT 06/02 A2998 RMK A01 T00610023  RH  076%=      5-min Rain = 0
KWT1 191301Z 22002KT 06/02 A2998 RMK A01 T00620024  RH  077%=      5-min Rain = 0
KWT1 191302Z 22002KT 06/02 A2998 RMK A01 T00620024  RH  076%=      5-min Rain = 0
KWT1 191303Z 22002KT 06/02 A2998 RMK A01 T00620024  RH  076%=      5-min Rain = 0
KWT1 191304Z 22002KT 06/02 A2998 RMK A01 T00630024  RH  076%=      5-min Rain = 0
KWT1 191305Z 23002KT 06/03 A2998 RMK A01 T00640025  RH  076%=      5-min Rain = 0
KWT1 191306Z 23002KT 07/02 A2998 RMK A01 T00650024  RH  075%=      5-min Rain = 0
KWT1 191307Z 23002KT 06/02 A2998 RMK A01 T00640024  RH  075%=      5-min Rain = 0
KWT1 191308Z 23002KT 06/02 A2998 RMK A01 T00640023  RH  075%=      5-min Rain = 0
KWT1 191309Z 22003KT 06/02 A2998 RMK A01 T00640023  RH  075%=      5-min Rain = 0
KWT1 191310Z 22003KT 06/02 A2998 RMK A01 T00640023  RH  075%=      5-min Rain = 0
KWT1 191311Z 22003KT 06/02 A2998 RMK A01 T00640023  RH  075%=      5-min Rain = 0
KWT1 191312Z 22003KT 07/02 A2998 RMK A01 T00650024  RH  075%=      5-min Rain = 0
KWT1 191313Z 22003KT 07/02 A2998 RMK A01 T00670024  RH  074%=      5-min Rain = 0
KWT1 191314Z 22003KT 07/02 A2998 RMK A01 T00680024  RH  074%=      5-min Rain = 0
KWT1 191315Z 22003KT 07/02 A2998 RMK A01 T00680023  RH  073%=      5-min Rain = 0
KWT1 191316Z 22003KT 07/02 A2998 RMK A01 T00680023  RH  073%=      5-min Rain = 0
KWT1 191317Z 22003KT 07/02 A2999 RMK A01 T00680022  RH  073%=      5-min Rain = 0
KWT1 191318Z 22003KT 07/02 A2999 RMK A01 T00670022  RH  073%=      5-min Rain = 0
KWT1 191319Z 22002KT 07/02 A2999 RMK A01 T00670022  RH  073%=      5-min Rain = 0
KWT1 191320Z 22002KT 07/02 A2999 RMK A01 T00670022  RH  073%=      5-min Rain = 0
KWT1 191321Z 20002KT 07/02 A2999 RMK A01 T00670022  RH  073%=      5-min Rain = 0
KWT1 191322Z 18002KT 07/02 A2999 RMK A01 T00660022  RH  073%=      5-min Rain = 0
KWT1 191323Z 21002KT 07/02 A2999 RMK A01 T00670024  RH  074%=      5-min Rain = 0
KWT1 191324Z 22002KT 07/03 A2999 RMK A01 T00680025  RH  074%=      5-min Rain = 0
KWT1 191325Z 21002KT 07/03 A2999 RMK A01 T00700025  RH  073%=      5-min Rain = 0
KWT1 191326Z 21002KT 07/03 A2999 RMK A01 T00710025  RH  072%=      5-min Rain = 0
KWT1 191327Z 21002KT 07/03 A2999 RMK A01 T00720025  RH  072%=      5-min Rain = 0
KWT1 191328Z 21003KT 07/02 A2999 RMK A01 T00720024  RH  071%=      5-min Rain = 0
KWT1 191329Z 21003KT 07/02 A2999 RMK A01 T00730024  RH  071%=      5-min Rain = 0
KWT1 191330Z 21003KT 07/02 A2999 RMK A01 T00730024  RH  071%=      5-min Rain = 0
KWT1 191331Z 21003KT 07/02 A2999 RMK A01 T00730023  RH  071%=      5-min Rain = 0
KWT1 191332Z 21003KT 07/02 A2999 RMK A01 T00710022  RH  071%=      5-min Rain = 0
KWT1 191333Z 21003KT 07/02 A2999 RMK A01 T00700022  RH  071%=      5-min Rain = 0
KWT1 191334Z 21004KT 07/02 A2999 RMK A01 T00700022  RH  072%=      5-min Rain = 0
KWT1 191335Z 22003KT 07/02 A2999 RMK A01 T00700022  RH  072%=      5-min Rain = 0
KWT1 191336Z 21003KT 07/02 A2999 RMK A01 T00700022  RH  072%=      5-min Rain = 0
KWT1 191337Z 21003KT 07/02 A2999 RMK A01 T00690022  RH  072%=      5-min Rain = 0
KWT1 191338Z 20003KT 07/02 A2999 RMK A01 T00680020  RH  072%=      5-min Rain = 0
KWT1 191339Z 20004KT 07/02 A2999 RMK A01 T00670021  RH  072%=      5-min Rain = 0
KWT1 191340Z 20004KT 07/02 A2999 RMK A01 T00670022  RH  073%=      5-min Rain = 0
KWT1 191341Z 19004KT 07/02 A2999 RMK A01 T00670022  RH  073%=      5-min Rain = 0
KWT1 191342Z 19004KT 07/02 A2999 RMK A01 T00670022  RH  073%=      5-min Rain = 0
KWT1 191343Z 19004KT 07/02 A2999 RMK A01 T00680022  RH  073%=      5-min Rain = 0
KWT1 191344Z 19004KT 07/02 A2999 RMK A01 T00680022  RH  073%=      5-min Rain = 0
KWT1 191345Z 19004KT 07/02 A2999 RMK A01 T00680023  RH  073%=      5-min Rain = 0
KWT1 191346Z 19004KT 07/02 A2999 RMK A01 T00690023  RH  072%=      5-min Rain = 0
KWT1 191347Z 19004KT 07/02 A2999 RMK A01 T00700023  RH  072%=      5-min Rain = 0
KWT1 191348Z 18004KT 07/02 A2999 RMK A01 T00710024  RH  072%=      5-min Rain = 0
KWT1 191349Z 18005KT 07/02 A2999 RMK A01 T00720024  RH  072%=      5-min Rain = 0
KWT1 191350Z 18005KT 07/03 A2999 RMK A01 T00730025  RH  071%=      5-min Rain = 0
KWT1 191351Z 18005KT 07/03 A2999 RMK A01 T00740025  RH  071%=      5-min Rain = 0
KWT1 191352Z 18005KT 08/03 A2999 RMK A01 T00760025  RH  070%=      5-min Rain = 0
KWT1 191353Z 18004KT 08/03 A2999 RMK A01 T00770025  RH  070%=      5-min Rain = 0
KWT1 191354Z 18004KT 08/03 A2999 RMK A01 T00780025  RH  069%=      5-min Rain = 0
KWT1 191355Z 18005KT 08/03 A2999 RMK A01 T00790026  RH  069%=      5-min Rain = 0
KWT1 191356Z 18004KT 08/03 A2999 RMK A01 T00800026  RH  069%=      5-min Rain = 0
KWT1 191357Z 18004KT 08/03 A2999 RMK A01 T00810026  RH  068%=      5-min Rain = 0
KWT1 191358Z 18004KT 08/03 A2999 RMK A01 T00820027  RH  068%=      5-min Rain = 0
KWT1 191359Z 18004KT 08/03 A2999 RMK A01 T00830027  RH  068%=      5-min Rain = 0
KWT1 191400Z 18004KT 08/03 A2999 RMK A01 T00840028  RH  068%=      5-min Rain = 0
KWT1 191401Z 18004KT 09/03 A2999 RMK A01 T00850028  RH  068%=      5-min Rain = 0
KWT1 191402Z 18004KT 09/03 A2999 RMK A01 T00850028  RH  067%=      5-min Rain = 0
KWT1 191403Z 18004KT 09/03 A2999 RMK A01 T00860029  RH  067%=      5-min Rain = 0
KWT1 191404Z 18004KT 09/03 A2999 RMK A01 T00870029  RH  067%=      5-min Rain = 0
KWT1 191405Z 19003KT 09/03 A2999 RMK A01 T00870029  RH  067%=      5-min Rain = 0
KWT1 191406Z 19003KT 09/03 A2999 RMK A01 T00870030  RH  067%=      5-min Rain = 0
KWT1 191407Z 19003KT 09/03 A2999 RMK A01 T00880030  RH  067%=      5-min Rain = 0
KWT1 191408Z 19003KT 09/03 A2999 RMK A01 T00890031  RH  067%=      5-min Rain = 0
KWT1 191409Z 19003KT 09/03 A2999 RMK A01 T00890031  RH  067%=      5-min Rain = 0
KWT1 191410Z 19002KT 09/03 A2999 RMK A01 T00890032  RH  067%=      5-min Rain = 0
KWT1 191411Z 19003KT 09/03 A2999 RMK A01 T00900033  RH  067%=      5-min Rain = 0
KWT1 191412Z 19003KT 09/03 A2999 RMK A01 T00900033  RH  068%=      5-min Rain = 0
KWT1 191413Z 18003KT 09/03 A2999 RMK A01 T00910033  RH  067%=      5-min Rain = 0
KWT1 191414Z 19002KT 09/03 A2999 RMK A01 T00910034  RH  067%=      5-min Rain = 0
KWT1 191415Z 18003KT 09/03 A2999 RMK A01 T00920033  RH  067%=      5-min Rain = 0
KWT1 191416Z 19002KT 09/03 A2999 RMK A01 T00920034  RH  067%=      5-min Rain = 0
KWT1 191417Z 19002KT 09/03 A2999 RMK A01 T00920034  RH  067%=      5-min Rain = 0
KWT1 191418Z 19002KT 09/03 A2999 RMK A01 T00920033  RH  067%=      5-min Rain = 0
KWT1 191419Z 18002KT 09/04 A2999 RMK A01 T00930035  RH  067%=      5-min Rain = 0
KWT1 191420Z 18002KT 09/04 A2999 RMK A01 T00930035  RH  067%=      5-min Rain = 0
KWT1 191421Z 18002KT 09/04 A2999 RMK A01 T00940036  RH  067%=      5-min Rain = 0
KWT1 191422Z 18002KT 09/04 A2999 RMK A01 T00940035  RH  066%=      5-min Rain = 0
KWT1 191423Z 19003KT 10/04 A2999 RMK A01 T00950035  RH  066%=      5-min Rain = 0
KWT1 191424Z 18004KT 09/03 A2999 RMK A01 T00940034  RH  066%=      5-min Rain = 0
KWT1 191425Z 18004KT 10/03 A2999 RMK A01 T00950034  RH  066%=      5-min Rain = 0
KWT1 191426Z 18004KT 10/04 A2999 RMK A01 T00960035  RH  066%=      5-min Rain = 0
KWT1 191427Z 19004KT 10/03 A2999 RMK A01 T00960034  RH  065%=      5-min Rain = 0
KWT1 191428Z 18005KT 10/03 A2999 RMK A01 T00970034  RH  065%=      5-min Rain = 0
KWT1 191429Z 19005KT 10/03 A2999 RMK A01 T00970033  RH  064%=      5-min Rain = 0
KWT1 191430Z 18005KT 10/03 A2999 RMK A01 T00970034  RH  065%=      5-min Rain = 0
KWT1 191431Z 19005KT 10/03 A2999 RMK A01 T00980033  RH  064%=      5-min Rain = 0
KWT1 191432Z 18005KT 10/04 A2999 RMK A01 T00990035  RH  064%=      5-min Rain = 0
KWT1 191433Z 19004KT 10/03 A2999 RMK A01 T01000034  RH  064%=      5-min Rain = 0
KWT1 191434Z 18004KT 10/04 A2999 RMK A01 T01010036  RH  064%=      5-min Rain = 0
KWT1 191435Z 18005KT 10/04 A2999 RMK A01 T01020035  RH  063%=      5-min Rain = 0
KWT1 191436Z 18005KT 10/03 A2999 RMK A01 T01030034  RH  063%=      5-min Rain = 0
KWT1 191437Z 18005KT 10/03 A2999 RMK A01 T01030034  RH  062%=      5-min Rain = 0
KWT1 191438Z 18006KT 10/03 A2999 RMK A01 T01040034  RH  062%=      5-min Rain = 0
KWT1 191439Z 17004KT 10/03 A2999 RMK A01 T01040034  RH  062%=      5-min Rain = 0
KWT1 191440Z 18003KT 11/04 A2999 RMK A01 T01060037  RH  062%=      5-min Rain = 0
KWT1 191441Z 18004KT 11/04 A2999 RMK A01 T01070038  RH  062%=      5-min Rain = 0
KWT1 191442Z 18004KT 11/04 A2999 RMK A01 T01080036  RH  061%=      5-min Rain = 0
KWT1 191443Z 18005KT 11/04 A2999 RMK A01 T01080036  RH  061%=      5-min Rain = 0
KWT1 191444Z 19004KT 11/04 A2999 RMK A01 T01090036  RH  061%=      5-min Rain = 0
KWT1 191445Z 19003KT 11/04 A2999 RMK A01 T01100038  RH  061%=      5-min Rain = 0
KWT1 191446Z 19003KT 11/04 A2999 RMK A01 T01120038  RH  060%=      5-min Rain = 0
KWT1 191447Z 19004KT 11/04 A2999 RMK A01 T01130038  RH  060%=      5-min Rain = 0
KWT1 191448Z 19003KT 11/04 A2999 RMK A01 T01140038  RH  059%=      5-min Rain = 0
KWT1 191449Z 19004KT 12/04 A2999 RMK A01 T01150038  RH  059%=      5-min Rain = 0
KWT1 191450Z 20004KT 12/04 A2999 RMK A01 T01160039  RH  059%=      5-min Rain = 0
KWT1 191451Z 20004KT 12/04 A2999 RMK A01 T01170039  RH  059%=      5-min Rain = 0
KWT1 191452Z 19005KT 12/04 A2999 RMK A01 T01160039  RH  059%=      5-min Rain = 0
KWT1 191453Z 19005KT 12/04 A2999 RMK A01 T01150038  RH  059%=      5-min Rain = 0
KWT1 191454Z 19005KT 12/04 A2999 RMK A01 T01150039  RH  059%=      5-min Rain = 0
KWT1 191455Z 18004KT 12/04 A2999 RMK A01 T01150039  RH  059%=      5-min Rain = 0
KWT1 191456Z 18004KT 12/04 A2999 RMK A01 T01160041  RH  060%=      5-min Rain = 0
KWT1 191457Z 18004KT 12/04 A2999 RMK A01 T01190042  RH  059%=      5-min Rain = 0
KWT1 191458Z 18005KT 12/04 A2999 RMK A01 T01190040  RH  059%=      5-min Rain = 0
KWT1 191459Z 18004KT 12/04 A2999 RMK A01 T01180041  RH  059%=      5-min Rain = 0
KWT1 191500Z 19004KT 12/04 A2999 RMK A01 T01180042  RH  059%=      5-min Rain = 0
KWT1 191501Z 20003KT 12/04 A2999 RMK A01 T01180042  RH  060%=      5-min Rain = 0
KWT1 191502Z 20003KT 12/04 A2999 RMK A01 T01180043  RH  060%=      5-min Rain = 0
KWT1 191503Z 20004KT 12/04 A2999 RMK A01 T01190043  RH  060%=      5-min Rain = 0
KWT1 191504Z 20004KT 12/04 A2999 RMK A01 T01200044  RH  059%=      5-min Rain = 0
KWT1 191505Z 20004KT 12/04 A2999 RMK A01 T01200044  RH  059%=      5-min Rain = 0
KWT1 191506Z 20004KT 12/04 A2999 RMK A01 T01210043  RH  059%=      5-min Rain = 0
KWT1 191507Z 20004KT 12/04 A2999 RMK A01 T01210044  RH  059%=      5-min Rain = 0
KWT1 191508Z 19004KT 12/04 A2999 RMK A01 T01220043  RH  058%=      5-min Rain = 0
KWT1 191509Z 19005KT 12/04 A2999 RMK A01 T01210042  RH  059%=      5-min Rain = 0
KWT1 191510Z 19004KT 12/04 A2999 RMK A01 T01210042  RH  058%=      5-min Rain = 0
KWT1 191511Z 18004KT 12/04 A2999 RMK A01 T01210042  RH  059%=      5-min Rain = 0
KWT1 191512Z 18004KT 12/04 A2999 RMK A01 T01210043  RH  059%=      5-min Rain = 0
KWT1 191513Z 18004KT 12/04 A2999 RMK A01 T01230044  RH  058%=      5-min Rain = 0
KWT1 191514Z 18003KT 13/04 A2999 RMK A01 T01250044  RH  058%=      5-min Rain = 0
KWT1 191515Z 18004KT 13/05 A2999 RMK A01 T01260045  RH  058%=      5-min Rain = 0
KWT1 191516Z 18004KT 13/04 A2999 RMK A01 T01260044  RH  057%=      5-min Rain = 0
KWT1 191517Z 19003KT 13/04 A2999 RMK A01 T01270044  RH  057%=      5-min Rain = 0
KWT1 191518Z 19004KT 13/05 A2999 RMK A01 T01270045  RH  057%=      5-min Rain = 0
KWT1 191519Z 19003KT 13/05 A2999 RMK A01 T01280045  RH  057%=      5-min Rain = 0
KWT1 191520Z 19004KT 13/05 A2999 RMK A01 T01290045  RH  057%=      5-min Rain = 0
KWT1 191521Z 20004KT 13/05 A2999 RMK A01 T01300045  RH  056%=      5-min Rain = 0
KWT1 191522Z 21005KT 13/05 A2999 RMK A01 T01300045  RH  056%=      5-min Rain = 0
KWT1 191523Z 19004KT 13/05 A2999 RMK A01 T01310045  RH  056%=      5-min Rain = 0
KWT1 191524Z 18005KT 13/05 A2999 RMK A01 T01320045  RH  056%=      5-min Rain = 0
KWT1 191525Z 20007KT 13/05 A2999 RMK A01 T01320045  RH  055%=      5-min Rain = 0
KWT1 191526Z 19007KT 13/05 A2999 RMK A01 T01330045  RH  055%=      5-min Rain = 0
KWT1 191527Z 19006KT 13/05 A2999 RMK A01 T01330045  RH  055%=      5-min Rain = 0
KWT1 191528Z 20006KT 13/05 A2999 RMK A01 T01340046  RH  055%=      5-min Rain = 0
KWT1 191529Z 19006KT 14/05 A2999 RMK A01 T01350046  RH  055%=      5-min Rain = 0
KWT1 191530Z 19007KT 13/05 A2999 RMK A01 T01340046  RH  055%=      5-min Rain = 0
KWT1 191531Z 19007KT 14/05 A2999 RMK A01 T01350046  RH  055%=      5-min Rain = 0
KWT1 191532Z 19007KT 14/05 A2999 RMK A01 T01350047  RH  055%=      5-min Rain = 0
KWT1 191533Z 19008KT 14/05 A2999 RMK A01 T01360047  RH  055%=      5-min Rain = 0
KWT1 191534Z 19008KT 14/05 A2999 RMK A01 T01360047  RH  055%=      5-min Rain = 0
KWT1 191535Z 19009KT 14/05 A2999 RMK A01 T01350047  RH  055%=      5-min Rain = 0
KWT1 191536Z 19007KT 14/05 A2999 RMK A01 T01360048  RH  055%=      5-min Rain = 0
KWT1 191537Z 19007KT 14/05 A2999 RMK A01 T01380049  RH  055%=      5-min Rain = 0
KWT1 191538Z 19009KT 14/05 A2999 RMK A01 T01390049  RH  055%=      5-min Rain = 0
KWT1 191539Z 19007KT 14/05 A2999 RMK A01 T01390049  RH  054%=      5-min Rain = 0
KWT1 191540Z 20007KT 14/05 A2999 RMK A01 T01410051  RH  055%=      5-min Rain = 0
KWT1 191541Z 19008KT 14/05 A2999 RMK A01 T01420051  RH  054%=      5-min Rain = 0
KWT1 191542Z 19008KT 14/05 A2999 RMK A01 T01430051  RH  054%=      5-min Rain = 0
KWT1 191543Z 18008KT 14/05 A2999 RMK A01 T01440051  RH  054%=      5-min Rain = 0
KWT1 191544Z 20008KT 14/05 A2999 RMK A01 T01440051  RH  054%=      5-min Rain = 0
KWT1 191545Z 19007KT 14/05 A2999 RMK A01 T01440051  RH  054%=      5-min Rain = 0
KWT1 191546Z 18009KT 15/05 A2999 RMK A01 T01450052  RH  054%=      5-min Rain = 0
KWT1 191547Z 19007KT 15/05 A2999 RMK A01 T01450052  RH  054%=      5-min Rain = 0
KWT1 191548Z 19008KT 15/05 A2999 RMK A01 T01470053  RH  053%=      5-min Rain = 0
KWT1 191549Z 18009KT 15/05 A2999 RMK A01 T01480053  RH  053%=      5-min Rain = 0
KWT1 191550Z 18009KT 15/05 A2999 RMK A01 T01490053  RH  053%=      5-min Rain = 0
KWT1 191551Z 18007KT 15/05 A2999 RMK A01 T01490053  RH  053%=      5-min Rain = 0
KWT1 191552Z 19008KT 15/05 A2999 RMK A01 T01510054  RH  052%=      5-min Rain = 0
KWT1 191553Z 19007KT 15/06 A2999 RMK A01 T01520055  RH  052%=      5-min Rain = 0
KWT1 191554Z 19009KT 15/06 A2999 RMK A01 T01530055  RH  052%=      5-min Rain = 0
KWT1 191555Z 19010KT 15/06 A2999 RMK A01 T01540055  RH  052%=      5-min Rain = 0
KWT1 191556Z 20008KT 15/05 A2999 RMK A01 T01530053  RH  051%=      5-min Rain = 0
KWT1 191557Z 19009KT 15/05 A2999 RMK A01 T01530054  RH  052%=      5-min Rain = 0
KWT1 191558Z 19009KT 15/06 A2999 RMK A01 T01530055  RH  052%=      5-min Rain = 0
KWT1 191559Z 20009KT 15/06 A2999 RMK A01 T01540055  RH  051%=      5-min Rain = 0
KWT1 191600Z 19008KT 16/05 A2999 RMK A01 T01550054  RH  051%=      5-min Rain = 0
KWT1 191601Z 20009KT 16/05 A2999 RMK A01 T01550054  RH  051%=      5-min Rain = 0
KWT1 191602Z 19008KT 15/05 A2999 RMK A01 T01540054  RH  051%=      5-min Rain = 0
KWT1 191603Z 22007KT 15/06 A2999 RMK A01 T01540055  RH  052%=      5-min Rain = 0
KWT1 191604Z 20007KT 16/06 A2999 RMK A01 T01550055  RH  051%=      5-min Rain = 0
KWT1 191605Z 20008KT 16/06 A2999 RMK A01 T01570056  RH  051%=      5-min Rain = 0
KWT1 191606Z 21007KT 16/06 A2999 RMK A01 T01570055  RH  051%=      5-min Rain = 0
KWT1 191607Z 20007KT 16/06 A2999 RMK A01 T01570056  RH  051%=      5-min Rain = 0
KWT1 191608Z 21009KT 16/06 A2999 RMK A01 T01570056  RH  051%=      5-min Rain = 0
KWT1 191609Z 20010KT 16/06 A2999 RMK A01 T01560055  RH  051%=      5-min Rain = 0
KWT1 191610Z 20009KT 15/05 A2999 RMK A01 T01540054  RH  051%=      5-min Rain = 0
KWT1 191611Z 22007KT 15/06 A2999 RMK A01 T01540056  RH  052%=      5-min Rain = 0
KWT1 191612Z 21007KT 16/06 A2999 RMK A01 T01570057  RH  052%=      5-min Rain = 0
KWT1 191613Z 22007KT 16/06 A2999 RMK A01 T01590058  RH  051%=      5-min Rain = 0
KWT1 191614Z 21008KT 16/06 A2999 RMK A01 T01600058  RH  051%=      5-min Rain = 0
KWT1 191615Z 21007KT 16/06 A2999 RMK A01 T01600058  RH  051%=      5-min Rain = 0
KWT1 191616Z 21009KT 16/06 A2999 RMK A01 T01610058  RH  051%=      5-min Rain = 0
KWT1 191617Z 21007KT 16/06 A2999 RMK A01 T01590057  RH  051%=      5-min Rain = 0
KWT1 191618Z 21008KT 16/06 A2999 RMK A01 T01590058  RH  051%=      5-min Rain = 0
KWT1 191619Z 20007KT 16/06 A2999 RMK A01 T01600057  RH  051%=      5-min Rain = 0
KWT1 191620Z 21007KT 16/06 A2999 RMK A01 T01600058  RH  051%=      5-min Rain = 0
KWT1 191621Z 20009KT 16/06 A2999 RMK A01 T01620060  RH  051%=      5-min Rain = 0
KWT1 191622Z 20009KT 16/06 A2999 RMK A01 T01640060  RH  050%=      5-min Rain = 0
KWT1 191623Z 21010KT 16/06 A2999 RMK A01 T01640061  RH  050%=      5-min Rain = 0
KWT1 191624Z 21010KT 17/06 A2999 RMK A01 T01660061  RH  050%=      5-min Rain = 0
KWT1 191625Z 20010KT 17/06 A2999 RMK A01 T01670062  RH  050%=      5-min Rain = 0
KWT1 191626Z 21010KT 17/06 A2999 RMK A01 T01690062  RH  049%=      5-min Rain = 0
KWT1 191627Z 21012KT 17/06 A2999 RMK A01 T01700063  RH  049%=      5-min Rain = 0
KWT1 191628Z 21012KT 17/06 A2999 RMK A01 T01700063  RH  049%=      5-min Rain = 0
KWT1 191629Z 20011KT 17/06 A2999 RMK A01 T01700062  RH  049%=      5-min Rain = 0
KWT1 191630Z 20010KT 17/06 A2999 RMK A01 T01700063  RH  049%=      5-min Rain = 0
KWT1 191631Z 21010KT 17/06 A2999 RMK A01 T01720064  RH  049%=      5-min Rain = 0
KWT1 191632Z 21011KT 17/06 A2999 RMK A01 T01720063  RH  049%=      5-min Rain = 0
KWT1 191633Z 21009KT 17/06 A2999 RMK A01 T01720063  RH  049%=      5-min Rain = 0
KWT1 191634Z 19009KT 17/06 A2999 RMK A01 T01730064  RH  049%=      5-min Rain = 0
KWT1 191635Z 20009KT 17/07 A2999 RMK A01 T01730065  RH  049%=      5-min Rain = 0
KWT1 191636Z 20012KT 17/07 A2999 RMK A01 T01740065  RH  049%=      5-min Rain = 0
KWT1 191637Z 21011KT 18/06 A2999 RMK A01 T01750064  RH  048%=      5-min Rain = 0
KWT1 191638Z 21010KT 18/07 A2999 RMK A01 T01750065  RH  048%=      5-min Rain = 0
KWT1 191639Z 20012KT 18/06 A2999 RMK A01 T01760064  RH  048%=      5-min Rain = 0
KWT1 191640Z 21011KT 18/07 A2999 RMK A01 T01760065  RH  048%=      5-min Rain = 0
KWT1 191641Z 20011KT 18/06 A2999 RMK A01 T01760064  RH  048%=      5-min Rain = 0
KWT1 191642Z 20011KT 18/07 A2999 RMK A01 T01760065  RH  048%=      5-min Rain = 0
KWT1 191643Z 21009KT 18/07 A2999 RMK A01 T01770066  RH  048%=      5-min Rain = 0
KWT1 191644Z 20010G16KT 18/07 A2999 RMK A01 T01790067  RH  048%=      5-min Rain = 0
KWT1 191645Z 20012KT 18/07 A2998 RMK A01 T01810067  RH  047%=      5-min Rain = 0
KWT1 191646Z 20010KT 18/07 A2999 RMK A01 T01810067  RH  047%=      5-min Rain = 0
KWT1 191647Z 20012KT 18/07 A2998 RMK A01 T01830068  RH  047%=      5-min Rain = 0
KWT1 191648Z 20009KT 18/07 A2999 RMK A01 T01840068  RH  047%=      5-min Rain = 0
KWT1 191649Z 20012KT 18/07 A2998 RMK A01 T01840067  RH  046%=      5-min Rain = 0
KWT1 191650Z 19010KT 18/07 A2998 RMK A01 T01830066  RH  046%=      5-min Rain = 0
KWT1 191651Z 20009KT 18/07 A2998 RMK A01 T01820066  RH  047%=      5-min Rain = 0
KWT1 191652Z 20010KT 18/07 A2998 RMK A01 T01830066  RH  046%=      5-min Rain = 0
KWT1 191653Z 20009KT 18/07 A2998 RMK A01 T01830067  RH  046%=      5-min Rain = 0
KWT1 191654Z 20009KT 19/07 A2998 RMK A01 T01850068  RH  046%=      5-min Rain = 0
KWT1 191655Z 20008KT 19/07 A2998 RMK A01 T01870068  RH  046%=      5-min Rain = 0
KWT1 191656Z 19010KT 19/07 A2998 RMK A01 T01870067  RH  046%=      5-min Rain = 0
KWT1 191657Z 21009KT 19/07 A2998 RMK A01 T01860067  RH  046%=      5-min Rain = 0
KWT1 191658Z 20011KT 19/07 A2998 RMK A01 T01860067  RH  046%=      5-min Rain = 0
KWT1 191659Z 20009KT 19/07 A2998 RMK A01 T01850067  RH  046%=      5-min Rain = 0
KWT1 191700Z 20013KT 19/07 A2998 RMK A01 T01850067  RH  046%=      5-min Rain = 0
KWT1 191701Z 21011KT 18/07 A2998 RMK A01 T01830066  RH  046%=      5-min Rain = 0
KWT1 191702Z 19009KT 18/07 A2998 RMK A01 T01820067  RH  047%=      5-min Rain = 0
KWT1 191703Z 20010KT 18/07 A2998 RMK A01 T01810066  RH  047%=      5-min Rain = 0
KWT1 191704Z 20010KT 18/07 A2998 RMK A01 T01810067  RH  047%=      5-min Rain = 0
KWT1 191705Z 19010KT 18/07 A2998 RMK A01 T01810067  RH  047%=      5-min Rain = 0
KWT1 191706Z 20010KT 18/07 A2998 RMK A01 T01810067  RH  047%=      5-min Rain = 0
KWT1 191707Z 20009KT 18/07 A2998 RMK A01 T01820067  RH  047%=      5-min Rain = 0
KWT1 191708Z 20011KT 18/07 A2998 RMK A01 T01840069  RH  047%=      5-min Rain = 0
KWT1 191709Z 20010KT 19/07 A2998 RMK A01 T01860068  RH  046%=      5-min Rain = 0
KWT1 191710Z 20010KT 19/07 A2998 RMK A01 T01850067  RH  046%=      5-min Rain = 0
KWT1 191711Z 21009KT 19/07 A2998 RMK A01 T01850067  RH  046%=      5-min Rain = 0
KWT1 191712Z 21009KT 19/07 A2998 RMK A01 T01870068  RH  046%=      5-min Rain = 0
KWT1 191713Z 21007KT 19/07 A2998 RMK A01 T01870068  RH  046%=      5-min Rain = 0
KWT1 191714Z 21010KT 19/07 A2998 RMK A01 T01890069  RH  046%=      5-min Rain = 0
KWT1 191715Z 20010KT 19/07 A2997 RMK A01 T01890067  RH  045%=      5-min Rain = 0
KWT1 191716Z 20009KT 19/07 A2997 RMK A01 T01890068  RH  045%=      5-min Rain = 0
KWT1 191717Z 19009KT 19/07 A2997 RMK A01 T01890069  RH  045%=      5-min Rain = 0
KWT1 191718Z 20011KT 19/07 A2997 RMK A01 T01910068  RH  045%=      5-min Rain = 0
KWT1 191719Z 20009KT 19/07 A2997 RMK A01 T01890067  RH  045%=      5-min Rain = 0
KWT1 191720Z 21008KT 19/07 A2997 RMK A01 T01890069  RH  045%=      5-min Rain = 0
KWT1 191721Z 20008KT 19/07 A2997 RMK A01 T01920070  RH  045%=      5-min Rain = 0
KWT1 191722Z 20008KT 20/07 A2997 RMK A01 T01950071  RH  044%=      5-min Rain = 0
KWT1 191723Z 19010KT 20/07 A2997 RMK A01 T01970070  RH  044%=      5-min Rain = 0
KWT1 191724Z 20010KT 20/07 A2997 RMK A01 T01960068  RH  043%=      5-min Rain = 0
KWT1 191725Z 19011KT 20/07 A2997 RMK A01 T01960068  RH  043%=      5-min Rain = 0
KWT1 191726Z 20009KT 20/07 A2997 RMK A01 T01960069  RH  044%=      5-min Rain = 0
KWT1 191727Z 21010KT 20/07 A2997 RMK A01 T01950068  RH  044%=      5-min Rain = 0
KWT1 191728Z 21010KT 19/07 A2997 RMK A01 T01940067  RH  044%=      5-min Rain = 0
KWT1 191729Z 21008KT 19/07 A2997 RMK A01 T01930068  RH  044%=      5-min Rain = 0
KWT1 191730Z 21008KT 19/07 A2996 RMK A01 T01940068  RH  044%=      5-min Rain = 0
KWT1 191731Z 21008KT 19/07 A2996 RMK A01 T01930068  RH  044%=      5-min Rain = 0
KWT1 191732Z 21007KT 20/07 A2996 RMK A01 T01950070  RH  044%=      5-min Rain = 0
KWT1 191733Z 21009KT 20/07 A2996 RMK A01 T01970070  RH  044%=      5-min Rain = 0
KWT1 191734Z 19008KT 20/07 A2996 RMK A01 T01970069  RH  043%=      5-min Rain = 0
KWT1 191735Z 20007KT 20/07 A2996 RMK A01 T01980069  RH  043%=      5-min Rain = 0
KWT1 191736Z 20008KT 20/07 A2996 RMK A01 T01980070  RH  043%=      5-min Rain = 0
KWT1 191737Z 18007KT 20/07 A2996 RMK A01 T01990070  RH  043%=      5-min Rain = 0
KWT1 191738Z 19008KT 20/07 A2996 RMK A01 T02020071  RH  043%=      5-min Rain = 0
KWT1 191739Z 21010KT 20/07 A2996 RMK A01 T02040071  RH  042%=      5-min Rain = 0
KWT1 191740Z 21010KT 20/07 A2996 RMK A01 T02020068  RH  042%=      5-min Rain = 0
KWT1 191741Z 20010KT 20/07 A2996 RMK A01 T02010068  RH  042%=      5-min Rain = 0
KWT1 191742Z 18007KT 20/07 A2996 RMK A01 T02010072  RH  043%=      5-min Rain = 0
KWT1 191743Z 18008KT 20/07 A2996 RMK A01 T02040072  RH  042%=      5-min Rain = 0
KWT1 191744Z 18008KT 20/07 A2996 RMK A01 T02040069  RH  042%=      5-min Rain = 0
KWT1 191745Z 19008KT 20/07 A2996 RMK A01 T02020070  RH  042%=      5-min Rain = 0
KWT1 191746Z 19008KT 20/07 A2996 RMK A01 T02030072  RH  042%=      5-min Rain = 0
KWT1 191747Z 18009KT 21/07 A2996 RMK A01 T02050070  RH  042%=      5-min Rain = 0
KWT1 191748Z 18010KT 21/07 A2995 RMK A01 T02050070  RH  042%=      5-min Rain = 0
KWT1 191749Z 18011KT 20/07 A2995 RMK A01 T02040069  RH  041%=      5-min Rain = 0
KWT1 191750Z 18012KT 20/07 A2995 RMK A01 T02030069  RH  042%=      5-min Rain = 0
KWT1 191751Z 19011KT 20/07 A2995 RMK A01 T02020069  RH  042%=      5-min Rain = 0
KWT1 191752Z 20009KT 20/07 A2995 RMK A01 T02020069  RH  042%=      5-min Rain = 0
KWT1 191753Z 19010KT 20/07 A2995 RMK A01 T02020069  RH  042%=      5-min Rain = 0
KWT1 191754Z 18011KT 20/07 A2995 RMK A01 T02030069  RH  042%=      5-min Rain = 0
KWT1 191755Z 18010KT 20/07 A2995 RMK A01 T02030069  RH  042%=      5-min Rain = 0
KWT1 191756Z 19011KT 20/07 A2995 RMK A01 T02040069  RH  042%=      5-min Rain = 0
KWT1 191757Z 19009KT 21/07 A2995 RMK A01 T02050069  RH  041%=      5-min Rain = 0
KWT1 191758Z 19007KT 21/07 A2995 RMK A01 T02060071  RH  042%=      5-min Rain = 0
KWT1 191759Z 19011KT 21/07 A2995 RMK A01 T02070071  RH  041%=      5-min Rain = 0
KWT1 191800Z 20012KT 21/07 A2995 RMK A01 T02080070  RH  041%=      5-min Rain = 0
KWT1 191801Z 19011KT 21/07 A2995 RMK A01 T02070069  RH  041%=      5-min Rain = 0
KWT1 191802Z 20011KT 21/07 A2995 RMK A01 T02060069  RH  041%=      5-min Rain = 0
KWT1 191803Z 19010KT 21/07 A2995 RMK A01 T02060070  RH  041%=      5-min Rain = 0
KWT1 191804Z 19012KT 21/07 A2995 RMK A01 T02070070  RH  041%=      5-min Rain = 0
KWT1 191805Z 18010KT 21/07 A2995 RMK A01 T02080070  RH  041%=      5-min Rain = 0
KWT1 191806Z 17009KT 21/07 A2995 RMK A01 T02090071  RH  041%=      5-min Rain = 0
KWT1 191807Z 18009KT 21/07 A2994 RMK A01 T02100071  RH  041%=      5-min Rain = 0
KWT1 191808Z 20009KT 21/07 A2994 RMK A01 T02110071  RH  040%=      5-min Rain = 0
KWT1 191809Z 20012KT 21/07 A2994 RMK A01 T02110071  RH  040%=      5-min Rain = 0
KWT1 191810Z 21011KT 21/07 A2994 RMK A01 T02120070  RH  040%=      5-min Rain = 0
KWT1 191811Z 18009KT 21/07 A2994 RMK A01 T02120072  RH  040%=      5-min Rain = 0
KWT1 191812Z 20009KT 22/07 A2994 RMK A01 T02160073  RH  040%=      5-min Rain = 0
KWT1 191813Z 19007KT 22/07 A2994 RMK A01 T02170072  RH  039%=      5-min Rain = 0
KWT1 191814Z 19008KT 22/07 A2994 RMK A01 T02180073  RH  039%=      5-min Rain = 0
KWT1 191815Z 19010KT 22/07 A2994 RMK A01 T02200073  RH  039%=      5-min Rain = 0
KWT1 191816Z 19010KT 22/07 A2994 RMK A01 T02190071  RH  038%=      5-min Rain = 0
KWT1 191817Z 18009KT 22/07 A2994 RMK A01 T02180072  RH  039%=      5-min Rain = 0
KWT1 191818Z 18010KT 22/07 A2994 RMK A01 T02170072  RH  039%=      5-min Rain = 0
KWT1 191819Z 17009KT 22/07 A2993 RMK A01 T02160071  RH  039%=      5-min Rain = 0
KWT1 191820Z 17010KT 22/07 A2993 RMK A01 T02170073  RH  039%=      5-min Rain = 0
KWT1 191821Z 17011KT 22/07 A2993 RMK A01 T02190072  RH  039%=      5-min Rain = 0
KWT1 191822Z 17009KT 22/07 A2993 RMK A01 T02200073  RH  039%=      5-min Rain = 0
KWT1 191823Z 17010KT 22/07 A2993 RMK A01 T02220074  RH  039%=      5-min Rain = 0
KWT1 191824Z 17010G15KT 22/07 A2993 RMK A01 T02230072  RH  038%=      5-min Rain = 0
KWT1 191825Z 18010KT 22/07 A2993 RMK A01 T02220072  RH  038%=      5-min Rain = 0
KWT1 191826Z 17008KT 22/07 A2993 RMK A01 T02210072  RH  038%=      5-min Rain = 0
KWT1 191827Z 18009KT 22/07 A2993 RMK A01 T02220072  RH  038%=      5-min Rain = 0
KWT1 191828Z 19011KT 22/07 A2993 RMK A01 T02220074  RH  038%=      5-min Rain = 0
KWT1 191829Z 19011KT 23/07 A2993 RMK A01 T02250074  RH  038%=      5-min Rain = 0
KWT1 191830Z 19010KT 23/07 A2993 RMK A01 T02260073  RH  037%=      5-min Rain = 0
KWT1 191831Z 19012KT 23/07 A2992 RMK A01 T02260073  RH  037%=      5-min Rain = 0
KWT1 191832Z 19012KT 23/07 A2992 RMK A01 T02250072  RH  037%=      5-min Rain = 0
KWT1 191833Z 19012KT 23/07 A2992 RMK A01 T02250072  RH  037%=      5-min Rain = 0
KWT1 191834Z 19010KT 22/07 A2992 RMK A01 T02230071  RH  037%=      5-min Rain = 0
KWT1 191835Z 18012KT 22/07 A2992 RMK A01 T02240073  RH  038%=      5-min Rain = 0
KWT1 191836Z 18015KT 23/07 A2992 RMK A01 T02250072  RH  037%=      5-min Rain = 0
KWT1 191837Z 18011KT 23/07 A2992 RMK A01 T02250071  RH  037%=      5-min Rain = 0
KWT1 191838Z 19012KT 23/07 A2992 RMK A01 T02250071  RH  037%=      5-min Rain = 0
KWT1 191839Z 20013KT 23/07 A2992 RMK A01 T02260072  RH  037%=      5-min Rain = 0
KWT1 191840Z 20013KT 23/07 A2992 RMK A01 T02280073  RH  037%=      5-min Rain = 0
KWT1 191841Z 19016KT 23/07 A2992 RMK A01 T02300072  RH  036%=      5-min Rain = 0
KWT1 191842Z 18013KT 23/07 A2992 RMK A01 T02310071  RH  036%=      5-min Rain = 0
KWT1 191843Z 17016KT 23/07 A2991 RMK A01 T02290071  RH  036%=      5-min Rain = 0
KWT1 191844Z 19012KT 23/07 A2991 RMK A01 T02280071  RH  036%=      5-min Rain = 0
KWT1 191845Z 20013KT 23/07 A2991 RMK A01 T02280071  RH  036%=      5-min Rain = 0
KWT1 191846Z 19015KT 23/07 A2991 RMK A01 T02290070  RH  036%=      5-min Rain = 0
KWT1 191847Z 19012KT 23/07 A2991 RMK A01 T02290070  RH  036%=      5-min Rain = 0
KWT1 191848Z 19012KT 23/07 A2991 RMK A01 T02290069  RH  036%=      5-min Rain = 0
KWT1 191849Z 19013KT 23/07 A2991 RMK A01 T02300071  RH  036%=      5-min Rain = 0
KWT1 191850Z 19014KT 23/07 A2991 RMK A01 T02330071  RH  035%=      5-min Rain = 0
KWT1 191851Z 21015KT 23/07 A2991 RMK A01 T02340070  RH  035%=      5-min Rain = 0
KWT1 191852Z 19013KT 23/07 A2991 RMK A01 T02340070  RH  035%=      5-min Rain = 0
KWT1 191853Z 18010KT 24/07 A2991 RMK A01 T02360071  RH  035%=      5-min Rain = 0
KWT1 191854Z 19011KT 24/07 A2991 RMK A01 T02380071  RH  034%=      5-min Rain = 0
KWT1 191855Z 18015KT 24/07 A2991 RMK A01 T02390070  RH  034%=      5-min Rain = 0
KWT1 191856Z 19014KT 24/07 A299 RMK A01 T02400067  RH  033%=      5-min Rain = 0
KWT1 191857Z 18014KT 24/07 A299 RMK A01 T02410065  RH  032%=      5-min Rain = 0
KWT1 191858Z 18013KT 24/07 A299 RMK A01 T02410065  RH  032%=      5-min Rain = 0
KWT1 191859Z 19012KT 24/07 A299 RMK A01 T02410066  RH  032%=      5-min Rain = 0
KWT1 191900Z 18014G19KT 24/07 A299 RMK A01 T02430066  RH  032%=      5-min Rain = 0
KWT1 191901Z 19017KT 24/06 A299 RMK A01 T02440062  RH  031%=      5-min Rain = 0
KWT1 191902Z 18015KT 24/06 A299 RMK A01 T02440059  RH  030%=      5-min Rain = 0
KWT1 191903Z 18017KT 24/06 A299 RMK A01 T02440060  RH  031%=      5-min Rain = 0
KWT1 191904Z 19018KT 25/06 A299 RMK A01 T02450059  RH  030%=      5-min Rain = 0
KWT1 191905Z 20016KT 25/06 A299 RMK A01 T02450059  RH  030%=      5-min Rain = 0
KWT1 191906Z 18010KT 25/06 A299 RMK A01 T02450060  RH  030%=      5-min Rain = 0
KWT1 191907Z 20013KT 25/06 A299 RMK A01 T02480062  RH  030%=      5-min Rain = 0
KWT1 191908Z 18015KT 25/06 A299 RMK A01 T02490060  RH  030%=      5-min Rain = 0
KWT1 191909Z 18014KT 25/06 A299 RMK A01 T02490060  RH  030%=      5-min Rain = 0
KWT1 191910Z 18014KT 25/06 A299 RMK A01 T02490059  RH  029%=      5-min Rain = 0
KWT1 191911Z 19015KT 25/06 A299 RMK A01 T02490060  RH  030%=      5-min Rain = 0
KWT1 191912Z 18015KT 25/06 A299 RMK A01 T02500061  RH  030%=      5-min Rain = 0
KWT1 191913Z 18014KT 25/06 A299 RMK A01 T02500061  RH  030%=      5-min Rain = 0
KWT1 191914Z 18012KT 25/06 A2989 RMK A01 T02490062  RH  030%=      5-min Rain = 0
KWT1 191915Z 19014G21KT 25/06 A2989 RMK A01 T02480063  RH  030%=      5-min Rain = 0
KWT1 191916Z 18016KT 25/06 A2989 RMK A01 T02480063  RH  030%=      5-min Rain = 0
KWT1 191917Z 18015KT 25/06 A2989 RMK A01 T02470063  RH  031%=      5-min Rain = 0
KWT1 191918Z 18013KT 25/06 A2989 RMK A01 T02460063  RH  031%=      5-min Rain = 0
KWT1 191919Z 17014KT 25/06 A2989 RMK A01 T02460063  RH  031%=      5-min Rain = 0
KWT1 191920Z 19012KT 25/06 A2989 RMK A01 T02460064  RH  031%=      5-min Rain = 0
KWT1 191921Z 20013KT 25/07 A2989 RMK A01 T02470065  RH  031%=      5-min Rain = 0
KWT1 191922Z 18012G18KT 25/07 A2989 RMK A01 T02490065  RH  031%=      5-min Rain = 0
KWT1 191923Z 18016G21KT 25/06 A2989 RMK A01 T02490063  RH  030%=      5-min Rain = 0
KWT1 191924Z 18019KT 25/06 A2989 RMK A01 T02470060  RH  030%=      5-min Rain = 0
KWT1 191925Z 18015KT 24/06 A2989 RMK A01 T02440059  RH  030%=      5-min Rain = 0
KWT1 191926Z 18016G21KT 25/06 A2989 RMK A01 T02460060  RH  030%=      5-min Rain = 0
KWT1 191927Z 18013KT 25/06 A2989 RMK A01 T02480061  RH  030%=      5-min Rain = 0
KWT1 191928Z 18014G19KT 25/06 A2989 RMK A01 T02480063  RH  030%=      5-min Rain = 0
KWT1 191929Z 19015KT 25/06 A2988 RMK A01 T02490063  RH  030%=      5-min Rain = 0
KWT1 191930Z 19014G19KT 25/06 A2988 RMK A01 T02490062  RH  030%=      5-min Rain = 0
KWT1 191931Z 18013KT 25/06 A2988 RMK A01 T02480060  RH  030%=      5-min Rain = 0
KWT1 191932Z 18015KT 25/06 A2988 RMK A01 T02490058  RH  029%=      5-min Rain = 0
KWT1 191933Z 19014KT 25/06 A2988 RMK A01 T02490058  RH  029%=      5-min Rain = 0
KWT1 191934Z 19015KT 25/06 A2988 RMK A01 T02500060  RH  030%=      5-min Rain = 0
KWT1 191935Z 19015KT 25/06 A2988 RMK A01 T02490060  RH  030%=      5-min Rain = 0
KWT1 191936Z 19014KT 25/06 A2988 RMK A01 T02490059  RH  029%=      5-min Rain = 0
KWT1 191937Z 19014KT 25/06 A2988 RMK A01 T02500057  RH  029%=      5-min Rain = 0
KWT1 191938Z 17013G18KT 25/06 A2988 RMK A01 T02510055  RH  028%=      5-min Rain = 0
KWT1 191939Z 17012G17KT 25/06 A2988 RMK A01 T02520056  RH  028%=      5-min Rain = 0
KWT1 191940Z 18012KT 25/06 A2988 RMK A01 T02530058  RH  029%=      5-min Rain = 0
KWT1 191941Z 18013KT 25/06 A2988 RMK A01 T02520060  RH  029%=      5-min Rain = 0
KWT1 191942Z 19011KT 25/06 A2988 RMK A01 T02520061  RH  030%=      5-min Rain = 0
KWT1 191943Z 19011KT 25/06 A2988 RMK A01 T02530061  RH  029%=      5-min Rain = 0
KWT1 191944Z 20012KT 25/06 A2988 RMK A01 T02540060  RH  029%=      5-min Rain = 0
KWT1 191945Z 20011KT 25/06 A2988 RMK A01 T02540058  RH  028%=      5-min Rain = 0
KWT1 191946Z 19011KT 26/06 A2988 RMK A01 T02550059  RH  028%=      5-min Rain = 0
KWT1 191947Z 18011KT 26/06 A2988 RMK A01 T02550059  RH  028%=      5-min Rain = 0
KWT1 191948Z 18013G18KT 26/06 A2988 RMK A01 T02570059  RH  028%=      5-min Rain = 0
KWT1 191949Z 19013G19KT 26/06 A2988 RMK A01 T02580058  RH  028%=      5-min Rain = 0
KWT1 191950Z 18014KT 26/06 A2987 RMK A01 T02580058  RH  028%=      5-min Rain = 0
KWT1 191951Z 17013KT 26/06 A2987 RMK A01 T02560057  RH  028%=      5-min Rain = 0
KWT1 191952Z 19015KT 26/06 A2987 RMK A01 T02550057  RH  028%=      5-min Rain = 0
KWT1 191953Z 18013G18KT 25/06 A2987 RMK A01 T02540057  RH  028%=      5-min Rain = 0
KWT1 191954Z 19015KT 25/06 A2987 RMK A01 T02540057  RH  028%=      5-min Rain = 0
KWT1 191955Z 18016KT 26/06 A2987 RMK A01 T02550058  RH  028%=      5-min Rain = 0
KWT1 191956Z 19014KT 26/06 A2987 RMK A01 T02550057  RH  028%=      5-min Rain = 0
KWT1 191957Z 20014KT 25/06 A2987 RMK A01 T02540057  RH  028%=      5-min Rain = 0
KWT1 191958Z 19012KT 25/06 A2987 RMK A01 T02540057  RH  028%=      5-min Rain = 0
KWT1 191959Z 18010KT 26/06 A2987 RMK A01 T02550058  RH  028%=      5-min Rain = 0
KWT1 192000Z 18015G21KT 26/06 A2987 RMK A01 T02570057  RH  028%=      5-min Rain = 0
KWT1 192001Z 17017KT 26/05 A2987 RMK A01 T02590052  RH  027%=      5-min Rain = 0
KWT1 192002Z 18013KT 26/05 A2987 RMK A01 T02570054  RH  027%=      5-min Rain = 0
KWT1 192003Z 18011KT 26/06 A2987 RMK A01 T02560056  RH  028%=      5-min Rain = 0
KWT1 192004Z 18013KT 26/06 A2987 RMK A01 T02570056  RH  027%=      5-min Rain = 0
KWT1 192005Z 18015KT 26/05 A2987 RMK A01 T02590052  RH  027%=      5-min Rain = 0
KWT1 192006Z 18014KT 26/05 A2987 RMK A01 T02590052  RH  026%=      5-min Rain = 0
KWT1 192007Z 20013KT 26/05 A2987 RMK A01 T02590052  RH  027%=      5-min Rain = 0
KWT1 192008Z 19014KT 26/05 A2986 RMK A01 T02600052  RH  026%=      5-min Rain = 0
KWT1 192009Z 19012KT 26/05 A2987 RMK A01 T02580052  RH  027%=      5-min Rain = 0
KWT1 192010Z 18012G18KT 26/05 A2986 RMK A01 T02570052  RH  027%=      5-min Rain = 0
KWT1 192011Z 17016KT 26/05 A2986 RMK A01 T02580053  RH  027%=      5-min Rain = 0
KWT1 192012Z 17014KT 26/05 A2986 RMK A01 T02580053  RH  027%=      5-min Rain = 0
KWT1 192013Z 17013KT 26/05 A2986 RMK A01 T02580053  RH  027%=      5-min Rain = 0
KWT1 192014Z 18014KT 26/05 A2986 RMK A01 T02590052  RH  026%=      5-min Rain = 0
KWT1 192015Z 19013KT 26/05 A2986 RMK A01 T02610049  RH  026%=      5-min Rain = 0
KWT1 192016Z 20013KT 26/04 A2986 RMK A01 T02630043  RH  024%=      5-min Rain = 0
KWT1 192017Z 21009KT 26/04 A2986 RMK A01 T02630044  RH  024%=      5-min Rain = 0
KWT1 192018Z 21015KT 26/05 A2986 RMK A01 T02630045  RH  025%=      5-min Rain = 0
KWT1 192019Z 20012G17KT 26/05 A2986 RMK A01 T02620045  RH  025%=      5-min Rain = 0
KWT1 192020Z 19013KT 26/05 A2986 RMK A01 T02610046  RH  025%=      5-min Rain = 0
KWT1 192021Z 18010KT 26/05 A2986 RMK A01 T02600046  RH  025%=      5-min Rain = 0
KWT1 192022Z 20013KT 26/05 A2986 RMK A01 T02600048  RH  026%=      5-min Rain = 0
KWT1 192023Z 20017KT 26/05 A2986 RMK A01 T02600050  RH  026%=      5-min Rain = 0
KWT1 192024Z 20015G20KT 26/05 A2986 RMK A01 T02580050  RH  026%=      5-min Rain = 0
KWT1 192025Z 20014KT 26/05 A2986 RMK A01 T02580050  RH  026%=      5-min Rain = 0
KWT1 192026Z 19013KT 26/05 A2986 RMK A01 T02570052  RH  027%=      5-min Rain = 0
KWT1 192027Z 19011KT 26/05 A2986 RMK A01 T02570054  RH  027%=      5-min Rain = 0
KWT1 192028Z 19012KT 26/05 A2986 RMK A01 T02590053  RH  027%=      5-min Rain = 0
KWT1 192029Z 19011KT 26/05 A2986 RMK A01 T02580051  RH  026%=      5-min Rain = 0
KWT1 192030Z 18013KT 26/05 A2986 RMK A01 T02590052  RH  027%=      5-min Rain = 0
KWT1 192031Z 19010KT 26/05 A2986 RMK A01 T02600052  RH  026%=      5-min Rain = 0
KWT1 192032Z 19014KT 26/05 A2985 RMK A01 T02610051  RH  026%=      5-min Rain = 0
KWT1 192033Z 19013KT 26/05 A2985 RMK A01 T02600045  RH  025%=      5-min Rain = 0
KWT1 192034Z 19012G17KT 26/05 A2985 RMK A01 T02610047  RH  025%=      5-min Rain = 0
KWT1 192035Z 20015KT 26/05 A2985 RMK A01 T02630047  RH  025%=      5-min Rain = 0
KWT1 192036Z 20012G17KT 26/05 A2985 RMK A01 T02620046  RH  025%=      5-min Rain = 0
KWT1 192037Z 20009KT 26/05 A2985 RMK A01 T02600045  RH  025%=      5-min Rain = 0
KWT1 192038Z 20014KT 26/05 A2985 RMK A01 T02620048  RH  025%=      5-min Rain = 0
KWT1 192039Z 18012KT 26/05 A2985 RMK A01 T02620047  RH  025%=      5-min Rain = 0
KWT1 192040Z 19014KT 26/05 A2985 RMK A01 T02610045  RH  025%=      5-min Rain = 0
KWT1 192041Z 19014KT 26/05 A2985 RMK A01 T02600047  RH  025%=      5-min Rain = 0
KWT1 192042Z 19012KT 26/05 A2985 RMK A01 T02600049  RH  026%=      5-min Rain = 0
KWT1 192043Z 20010G16KT 26/05 A2985 RMK A01 T02600050  RH  026%=      5-min Rain = 0
KWT1 192044Z 20009KT 26/05 A2985 RMK A01 T02620053  RH  026%=      5-min Rain = 0
KWT1 192045Z 19011KT 26/05 A2985 RMK A01 T02640050  RH  025%=      5-min Rain = 0
KWT1 192046Z 20013KT 26/05 A2985 RMK A01 T02630050  RH  025%=      5-min Rain = 0
KWT1 192047Z 19014KT 26/05 A2985 RMK A01 T02620050  RH  026%=      5-min Rain = 0
KWT1 192048Z 19013KT 26/05 A2985 RMK A01 T02600051  RH  026%=      5-min Rain = 0
KWT1 192049Z 18011KT 26/05 A2985 RMK A01 T02600052  RH  026%=      5-min Rain = 0
KWT1 192050Z 18011G17KT 26/06 A2985 RMK A01 T02610055  RH  027%=      5-min Rain = 0
KWT1 192051Z 19013KT 26/05 A2985 RMK A01 T02620053  RH  026%=      5-min Rain = 0
KWT1 192052Z 19012KT 26/05 A2985 RMK A01 T02610052  RH  026%=      5-min Rain = 0
KWT1 192053Z 18009KT 26/05 A2985 RMK A01 T02610053  RH  026%=      5-min Rain = 0
KWT1 192054Z 19011KT 26/05 A2985 RMK A01 T02640053  RH  026%=      5-min Rain = 0
KWT1 192055Z 19012KT 27/05 A2985 RMK A01 T02650051  RH  025%=      5-min Rain = 0
KWT1 192056Z 19013KT 26/05 A2985 RMK A01 T02640048  RH  025%=      5-min Rain = 0
KWT1 192057Z 19014KT 26/05 A2985 RMK A01 T02630047  RH  025%=      5-min Rain = 0
KWT1 192058Z 20011KT 26/05 A2985 RMK A01 T02630047  RH  025%=      5-min Rain = 0
KWT1 192059Z 20011KT 26/05 A2985 RMK A01 T02640048  RH  025%=      5-min Rain = 0
KWT1 192100Z 20015KT 26/05 A2985 RMK A01 T02640048  RH  025%=      5-min Rain = 0
KWT1 192101Z 21013KT 26/05 A2985 RMK A01 T02630047  RH  025%=      5-min Rain = 0
KWT1 192102Z 20013KT 26/05 A2985 RMK A01 T02630046  RH  025%=      5-min Rain = 0
KWT1 192103Z 20014KT 26/05 A2984 RMK A01 T02630047  RH  025%=      5-min Rain = 0
KWT1 192104Z 19013KT 26/05 A2984 RMK A01 T02620047  RH  025%=      5-min Rain = 0
KWT1 192105Z 18016KT 26/05 A2984 RMK A01 T02610047  RH  025%=      5-min Rain = 0
KWT1 192106Z 19014KT 26/05 A2984 RMK A01 T02620047  RH  025%=      5-min Rain = 0
KWT1 192107Z 20014KT 26/05 A2984 RMK A01 T02630047  RH  025%=      5-min Rain = 0
KWT1 192108Z 19015G20KT 26/05 A2984 RMK A01 T02620047  RH  025%=      5-min Rain = 0
KWT1 192109Z 20014KT 26/05 A2984 RMK A01 T02610047  RH  025%=      5-min Rain = 0
KWT1 192110Z 19016KT 26/05 A2984 RMK A01 T02600047  RH  025%=      5-min Rain = 0
KWT1 192111Z 19014KT 26/05 A2984 RMK A01 T02600047  RH  025%=      5-min Rain = 0
KWT1 192112Z 20013KT 26/05 A2984 RMK A01 T02590048  RH  026%=      5-min Rain = 0
KWT1 192113Z 21012KT 26/05 A2984 RMK A01 T02600049  RH  026%=      5-min Rain = 0
KWT1 192114Z 21014KT 26/05 A2984 RMK A01 T02620050  RH  026%=      5-min Rain = 0
KWT1 192115Z 20011KT 26/05 A2984 RMK A01 T02620050  RH  026%=      5-min Rain = 0
KWT1 192116Z 19013KT 26/05 A2984 RMK A01 T02630049  RH  025%=      5-min Rain = 0
KWT1 192117Z 19013KT 26/05 A2984 RMK A01 T02630048  RH  025%=      5-min Rain = 0
KWT1 192118Z 19011KT 26/05 A2984 RMK A01 T02630049  RH  025%=      5-min Rain = 0
KWT1 192119Z 19010KT 26/05 A2984 RMK A01 T02630049  RH  025%=      5-min Rain = 0
KWT1 192120Z 19014KT 26/05 A2984 RMK A01 T02630050  RH  025%=      5-min Rain = 0
KWT1 192121Z 19013KT 26/05 A2984 RMK A01 T02640048  RH  025%=      5-min Rain = 0
KWT1 192122Z 19013KT 26/05 A2984 RMK A01 T02640047  RH  025%=      5-min Rain = 0
KWT1 192123Z 19014KT 26/05 A2984 RMK A01 T02640048  RH  025%=      5-min Rain = 0
KWT1 192124Z 19016KT 26/05 A2984 RMK A01 T02640049  RH  025%=      5-min Rain = 0
KWT1 192125Z 20014KT 26/05 A2984 RMK A01 T02640050  RH  025%=      5-min Rain = 0
KWT1 192126Z 20012KT 26/05 A2984 RMK A01 T02640049  RH  025%=      5-min Rain = 0
KWT1 192127Z 19010KT 26/05 A2984 RMK A01 T02630049  RH  025%=      5-min Rain = 0
KWT1 192128Z 19008KT 26/05 A2984 RMK A01 T02630051  RH  026%=      5-min Rain = 0
KWT1 192129Z 18013KT 27/05 A2984 RMK A01 T02650051  RH  025%=      5-min Rain = 0
KWT1 192130Z 17014KT 27/05 A2984 RMK A01 T02650050  RH  025%=      5-min Rain = 0
KWT1 192131Z 18011KT 26/05 A2984 RMK A01 T02630049  RH  025%=      5-min Rain = 0
KWT1 192132Z 18009KT 26/05 A2984 RMK A01 T02630050  RH  026%=      5-min Rain = 0
KWT1 192133Z 19009KT 26/05 A2984 RMK A01 T02640051  RH  026%=      5-min Rain = 0
KWT1 192134Z 19012KT 27/05 A2984 RMK A01 T02650050  RH  025%=      5-min Rain = 0
KWT1 192135Z 18014KT 27/05 A2984 RMK A01 T02660049  RH  025%=      5-min Rain = 0
KWT1 192136Z 19013KT 27/05 A2984 RMK A01 T02650048  RH  025%=      5-min Rain = 0
KWT1 192137Z 20013KT 27/05 A2984 RMK A01 T02650049  RH  025%=      5-min Rain = 0
KWT1 192138Z 19012KT 26/05 A2984 RMK A01 T02640050  RH  025%=      5-min Rain = 0
KWT1 192139Z 20011KT 26/05 A2984 RMK A01 T02630049  RH  025%=      5-min Rain = 0
KWT1 192140Z 21011G16KT 26/05 A2984 RMK A01 T02620050  RH  026%=      5-min Rain = 0
KWT1 192141Z 21014KT 26/05 A2984 RMK A01 T02620049  RH  025%=      5-min Rain = 0
KWT1 192142Z 20013KT 26/05 A2984 RMK A01 T02620048  RH  025%=      5-min Rain = 0
KWT1 192143Z 19011KT 26/05 A2984 RMK A01 T02620048  RH  025%=      5-min Rain = 0
KWT1 192144Z 18011KT 26/05 A2984 RMK A01 T02630049  RH  025%=      5-min Rain = 0
KWT1 192145Z 17012KT 26/05 A2984 RMK A01 T02640049  RH  025%=      5-min Rain = 0
KWT1 192146Z 19012KT 26/05 A2984 RMK A01 T02640049  RH  025%=      5-min Rain = 0
KWT1 192147Z 20013KT 26/05 A2984 RMK A01 T02640049  RH  025%=      5-min Rain = 0
KWT1 192148Z 21013KT 27/05 A2984 RMK A01 T02650049  RH  025%=      5-min Rain = 0
KWT1 192149Z 20011G16KT 27/05 A2984 RMK A01 T02650049  RH  025%=      5-min Rain = 0
KWT1 192150Z 20014G19KT 27/05 A2984 RMK A01 T02660051  RH  025%=      5-min Rain = 0
KWT1 192151Z 21014KT 27/05 A2984 RMK A01 T02650049  RH  025%=      5-min Rain = 0
KWT1 192152Z 20013KT 26/05 A2984 RMK A01 T02640048  RH  025%=      5-min Rain = 0
KWT1 192153Z 20012G17KT 26/05 A2984 RMK A01 T02640048  RH  025%=      5-min Rain = 0
KWT1 192154Z 20012KT 26/05 A2984 RMK A01 T02640048  RH  025%=      5-min Rain = 0
KWT1 192155Z 20011KT 26/05 A2984 RMK A01 T02640048  RH  025%=      5-min Rain = 0
KWT1 192156Z 20011KT 26/05 A2984 RMK A01 T02640048  RH  025%=      5-min Rain = 0
KWT1 192157Z 19011KT 26/05 A2984 RMK A01 T02640049  RH  025%=      5-min Rain = 0
KWT1 192158Z 18013KT 27/05 A2984 RMK A01 T02650049  RH  025%=      5-min Rain = 0
KWT1 192159Z 18015KT 27/05 A2984 RMK A01 T02650049  RH  025%=      5-min Rain = 0
KWT1 192200Z 19015KT 26/05 A2984 RMK A01 T02640048  RH  025%=      5-min Rain = 0
KWT1 192201Z 19014KT 26/05 A2984 RMK A01 T02630048  RH  025%=      5-min Rain = 0
KWT1 192202Z 19015KT 26/05 A2983 RMK A01 T02630048  RH  025%=      5-min Rain = 0
KWT1 192203Z 18014KT 26/05 A2983 RMK A01 T02620048  RH  025%=      5-min Rain = 0
KWT1 192204Z 19013KT 26/05 A2983 RMK A01 T02620048  RH  025%=      5-min Rain = 0
KWT1 192205Z 18015KT 26/05 A2983 RMK A01 T02620047  RH  025%=      5-min Rain = 0
KWT1 192206Z 18016KT 26/05 A2983 RMK A01 T02620046  RH  025%=      5-min Rain = 0
KWT1 192207Z 18014KT 26/05 A2983 RMK A01 T02610046  RH  025%=      5-min Rain = 0
KWT1 192208Z 17012KT 26/05 A2984 RMK A01 T02610046  RH  025%=      5-min Rain = 0
KWT1 192209Z 18010KT 26/05 A2983 RMK A01 T02610046  RH  025%=      5-min Rain = 0
KWT1 192210Z 18012KT 26/05 A2983 RMK A01 T02630047  RH  025%=      5-min Rain = 0
KWT1 192211Z 18015G20KT 26/05 A2983 RMK A01 T02630045  RH  025%=      5-min Rain = 0
KWT1 192212Z 18013KT 26/05 A2983 RMK A01 T02620046  RH  025%=      5-min Rain = 0
KWT1 192213Z 19013KT 26/05 A2983 RMK A01 T02620047  RH  025%=      5-min Rain = 0
KWT1 192214Z 19011KT 26/05 A2983 RMK A01 T02620048  RH  025%=      5-min Rain = 0
KWT1 192215Z 18013G18KT 26/05 A2983 RMK A01 T02620050  RH  026%=      5-min Rain = 0
KWT1 192216Z 18012KT 26/05 A2983 RMK A01 T02620046  RH  025%=      5-min Rain = 0
KWT1 192217Z 17014KT 26/05 A2983 RMK A01 T02620045  RH  025%=      5-min Rain = 0
KWT1 192218Z 18014KT 26/04 A2983 RMK A01 T02610044  RH  025%=      5-min Rain = 0
KWT1 192219Z 18010KT 26/05 A2983 RMK A01 T02610045  RH  025%=      5-min Rain = 0
KWT1 192220Z 19010KT 26/05 A2983 RMK A01 T02610045  RH  025%=      5-min Rain = 0
KWT1 192221Z 18009KT 26/04 A2983 RMK A01 T02610044  RH  025%=      5-min Rain = 0
KWT1 192222Z 18009KT 26/04 A2983 RMK A01 T02610043  RH  025%=      5-min Rain = 0
KWT1 192223Z 18011G16KT 26/04 A2983 RMK A01 T02610043  RH  025%=      5-min Rain = 0
KWT1 192224Z 19012KT 26/04 A2983 RMK A01 T02610044  RH  025%=      5-min Rain = 0
KWT1 192225Z 18012G17KT 26/04 A2983 RMK A01 T02610044  RH  025%=      5-min Rain = 0
KWT1 192226Z 18013KT 26/04 A2983 RMK A01 T02600044  RH  025%=      5-min Rain = 0
KWT1 192227Z 19012G17KT 26/05 A2983 RMK A01 T02600045  RH  025%=      5-min Rain = 0
KWT1 192228Z 19013KT 26/04 A2983 RMK A01 T02600044  RH  025%=      5-min Rain = 0
KWT1 192229Z 19014KT 26/04 A2983 RMK A01 T02590044  RH  025%=      5-min Rain = 0
KWT1 192230Z 19013KT 26/05 A2983 RMK A01 T02590045  RH  025%=      5-min Rain = 0
KWT1 192231Z 19011KT 26/05 A2983 RMK A01 T02590046  RH  025%=      5-min Rain = 0
KWT1 192232Z 18013G18KT 26/05 A2983 RMK A01 T02590047  RH  026%=      5-min Rain = 0
KWT1 192233Z 19013KT 26/05 A2983 RMK A01 T02580047  RH  026%=      5-min Rain = 0
KWT1 192234Z 19011KT 26/05 A2983 RMK A01 T02560046  RH  026%=      5-min Rain = 0
KWT1 192235Z 19010KT 26/05 A2983 RMK A01 T02550046  RH  026%=      5-min Rain = 0
KWT1 192236Z 18012KT 25/05 A2983 RMK A01 T02540047  RH  026%=      5-min Rain = 0
KWT1 192237Z 18011KT 25/05 A2983 RMK A01 T02540047  RH  026%=      5-min Rain = 0
KWT1 192238Z 18012KT 25/05 A2983 RMK A01 T02530048  RH  027%=      5-min Rain = 0
KWT1 192239Z 19011KT 25/05 A2983 RMK A01 T02520048  RH  027%=      5-min Rain = 0
KWT1 192240Z 20011KT 25/05 A2983 RMK A01 T02520048  RH  027%=      5-min Rain = 0
KWT1 192241Z 19010KT 25/05 A2983 RMK A01 T02520048  RH  027%=      5-min Rain = 0
KWT1 192242Z 19009KT 25/05 A2983 RMK A01 T02530049  RH  027%=      5-min Rain = 0
KWT1 192243Z 19009KT 25/05 A2983 RMK A01 T02530049  RH  027%=      5-min Rain = 0
KWT1 192244Z 18008KT 25/05 A2983 RMK A01 T02530050  RH  027%=      5-min Rain = 0
KWT1 192245Z 18008KT 25/05 A2983 RMK A01 T02520050  RH  027%=      5-min Rain = 0
KWT1 192246Z 18008KT 25/05 A2983 RMK A01 T02520050  RH  027%=      5-min Rain = 0
KWT1 192247Z 18007KT 25/05 A2983 RMK A01 T02510051  RH  027%=      5-min Rain = 0
KWT1 192248Z 18005KT 25/05 A2983 RMK A01 T02510051  RH  028%=      5-min Rain = 0
KWT1 192249Z 18006KT 25/05 A2983 RMK A01 T02510052  RH  028%=      5-min Rain = 0
KWT1 192250Z 18008KT 25/05 A2983 RMK A01 T02510053  RH  028%=      5-min Rain = 0
KWT1 192251Z 18011KT 25/05 A2983 RMK A01 T02510053  RH  028%=      5-min Rain = 0
KWT1 192252Z 18009KT 25/05 A2983 RMK A01 T02520053  RH  028%=      5-min Rain = 0
KWT1 192253Z 17008KT 25/05 A2983 RMK A01 T02510053  RH  028%=      5-min Rain = 0
KWT1 192254Z 17009KT 25/05 A2983 RMK A01 T02520054  RH  028%=      5-min Rain = 0
KWT1 192255Z 17008KT 25/05 A2983 RMK A01 T02520054  RH  028%=      5-min Rain = 0
KWT1 192256Z 17007KT 25/06 A2983 RMK A01 T02510055  RH  028%=      5-min Rain = 0
KWT1 192257Z 17007KT 25/06 A2983 RMK A01 T02510055  RH  028%=      5-min Rain = 0
KWT1 192258Z 17008KT 25/06 A2983 RMK A01 T02500055  RH  029%=      5-min Rain = 0
KWT1 192259Z 16007KT 25/06 A2983 RMK A01 T02500056  RH  029%=      5-min Rain = 0
KWT1 192300Z 17008KT 25/06 A2983 RMK A01 T02500056  RH  029%=      5-min Rain = 0
KWT1 192301Z 17008KT 25/06 A2983 RMK A01 T02500057  RH  029%=      5-min Rain = 0
KWT1 192302Z 17007KT 25/06 A2983 RMK A01 T02500058  RH  029%=      5-min Rain = 0
KWT1 192303Z 17007KT 25/06 A2983 RMK A01 T02500058  RH  029%=      5-min Rain = 0
KWT1 192304Z 17009KT 25/06 A2983 RMK A01 T02490058  RH  029%=      5-min Rain = 0
KWT1 192305Z 17010KT 25/06 A2982 RMK A01 T02490056  RH  029%=      5-min Rain = 0
KWT1 192306Z 17010KT 25/05 A2982 RMK A01 T02490053  RH  028%=      5-min Rain = 0
KWT1 192307Z 18009KT 25/05 A2983 RMK A01 T02490053  RH  028%=      5-min Rain = 0
KWT1 192308Z 18010KT 25/05 A2983 RMK A01 T02490052  RH  028%=      5-min Rain = 0
KWT1 192309Z 18011KT 25/05 A2982 RMK A01 T02490050  RH  028%=      5-min Rain = 0
KWT1 192310Z 18010KT 25/05 A2983 RMK A01 T02490049  RH  028%=      5-min Rain = 0
KWT1 192311Z 18009KT 25/05 A2983 RMK A01 T02480048  RH  027%=      5-min Rain = 0
KWT1 192312Z 18008KT 25/05 A2983 RMK A01 T02470048  RH  028%=      5-min Rain = 0
KWT1 192313Z 18009KT 25/05 A2983 RMK A01 T02460047  RH  028%=      5-min Rain = 0
KWT1 192314Z 18009KT 25/05 A2982 RMK A01 T02450047  RH  028%=      5-min Rain = 0
KWT1 192315Z 18011KT 25/05 A2982 RMK A01 T02450047  RH  028%=      5-min Rain = 0
KWT1 192316Z 18008KT 25/05 A2982 RMK A01 T02450047  RH  028%=      5-min Rain = 0
KWT1 192317Z 18010KT 24/05 A2982 RMK A01 T02440047  RH  028%=      5-min Rain = 0
KWT1 192318Z 17009KT 24/05 A2982 RMK A01 T02430047  RH  028%=      5-min Rain = 0
KWT1 192319Z 18008KT 24/05 A2982 RMK A01 T02420048  RH  028%=      5-min Rain = 0
KWT1 192320Z 18008KT 24/05 A2982 RMK A01 T02410047  RH  029%=      5-min Rain = 0
KWT1 192321Z 18009KT 24/05 A2982 RMK A01 T02400048  RH  029%=      5-min Rain = 0
KWT1 192322Z 17008KT 24/05 A2982 RMK A01 T02400048  RH  029%=      5-min Rain = 0
KWT1 192323Z 18010KT 24/05 A2982 RMK A01 T02380048  RH  029%=      5-min Rain = 0
KWT1 192324Z 17009KT 24/05 A2982 RMK A01 T02380049  RH  029%=      5-min Rain = 0
KWT1 192325Z 17009KT 24/05 A2982 RMK A01 T02380049  RH  029%=      5-min Rain = 0
KWT1 192326Z 17009KT 24/05 A2982 RMK A01 T02370050  RH  030%=      5-min Rain = 0
KWT1 192327Z 18009KT 24/05 A2983 RMK A01 T02360050  RH  030%=      5-min Rain = 0
KWT1 192328Z 18009KT 24/05 A2983 RMK A01 T02360050  RH  030%=      5-min Rain = 0
KWT1 192329Z 17009KT 24/05 A2983 RMK A01 T02350050  RH  030%=      5-min Rain = 0
KWT1 192330Z 18008KT 24/05 A2983 RMK A01 T02350051  RH  030%=      5-min Rain = 0
KWT1 192331Z 17008KT 23/05 A2983 RMK A01 T02340051  RH  030%=      5-min Rain = 0
KWT1 192332Z 17009KT 23/05 A2983 RMK A01 T02330051  RH  031%=      5-min Rain = 0
KWT1 192333Z 17008KT 23/05 A2983 RMK A01 T02310051  RH  031%=      5-min Rain = 0
KWT1 192334Z 17008KT 23/05 A2983 RMK A01 T02310051  RH  031%=      5-min Rain = 0
KWT1 192335Z 17008KT 23/05 A2983 RMK A01 T02300051  RH  031%=      5-min Rain = 0
KWT1 192336Z 17008KT 23/05 A2983 RMK A01 T02290051  RH  031%=      5-min Rain = 0
KWT1 192337Z 17008KT 23/05 A2983 RMK A01 T02280051  RH  032%=      5-min Rain = 0
KWT1 192338Z 17008KT 23/05 A2983 RMK A01 T02270051  RH  032%=      5-min Rain = 0
KWT1 192339Z 17008KT 23/05 A2983 RMK A01 T02260051  RH  032%=      5-min Rain = 0
KWT1 192340Z 17008KT 23/05 A2983 RMK A01 T02250051  RH  032%=      5-min Rain = 0
KWT1 192341Z 17008KT 22/05 A2983 RMK A01 T02240051  RH  032%=      5-min Rain = 0
KWT1 192342Z 17008KT 22/05 A2983 RMK A01 T02230051  RH  033%=      5-min Rain = 0
KWT1 192343Z 17008KT 22/05 A2983 RMK A01 T02220051  RH  033%=      5-min Rain = 0
KWT1 192344Z 17007KT 22/05 A2983 RMK A01 T02210051  RH  033%=      5-min Rain = 0
KWT1 192345Z 17008KT 22/05 A2983 RMK A01 T02200051  RH  033%=      5-min Rain = 0
KWT1 192346Z 17008KT 22/05 A2983 RMK A01 T02190051  RH  034%=      5-min Rain = 0
KWT1 192347Z 16008KT 22/05 A2983 RMK A01 T02180051  RH  034%=      5-min Rain = 0
KWT1 192348Z 16008KT 22/05 A2983 RMK A01 T02160051  RH  034%=      5-min Rain = 0
KWT1 192349Z 16008KT 22/05 A2983 RMK A01 T02150051  RH  034%=      5-min Rain = 0
KWT1 192350Z 16008KT 21/05 A2983 RMK A01 T02140052  RH  035%=      5-min Rain = 0
KWT1 192351Z 16008KT 21/05 A2983 RMK A01 T02130052  RH  035%=      5-min Rain = 0
KWT1 192352Z 16008KT 21/05 A2983 RMK A01 T02120052  RH  035%=      5-min Rain = 0
KWT1 192353Z 16008KT 21/05 A2983 RMK A01 T02110053  RH  036%=      5-min Rain = 0
KWT1 192354Z 16008KT 21/05 A2983 RMK A01 T02100053  RH  036%=      5-min Rain = 0
KWT1 192355Z 16008KT 21/05 A2983 RMK A01 T02090054  RH  036%=      5-min Rain = 0
KWT1 192356Z 16008KT 21/05 A2983 RMK A01 T02080053  RH  036%=      5-min Rain = 0
KWT1 192357Z 16008KT 21/05 A2983 RMK A01 T02070054  RH  037%=      5-min Rain = 0
KWT1 192358Z 16008KT 21/05 A2983 RMK A01 T02070054  RH  037%=      5-min Rain = 0
KWT1 192359Z 16008KT 21/05 A2983 RMK A01 T02060054  RH  037%=      5-min Rain = 0
KWT1 200000Z 16008KT 21/05 A2983 RMK A01 T02050054  RH  037%=      5-min Rain = 0
KWT1 200001Z 16008KT 20/05 A2983 RMK A01 T02040054  RH  038%=      5-min Rain = 0
KWT1 200002Z 16008KT 20/06 A2983 RMK A01 T02030055  RH  038%=      5-min Rain = 0
KWT1 200003Z 16009KT 20/06 A2983 RMK A01 T02020055  RH  038%=      5-min Rain = 0
KWT1 200004Z 16009KT 20/06 A2983 RMK A01 T02010055  RH  038%=      5-min Rain = 0
KWT1 200005Z 16009KT 20/06 A2983 RMK A01 T02010056  RH  039%=      5-min Rain = 0
KWT1 200006Z 16009KT 20/06 A2983 RMK A01 T02010056  RH  039%=      5-min Rain = 0
KWT1 200007Z 16009KT 20/06 A2983 RMK A01 T02000056  RH  039%=      5-min Rain = 0
KWT1 200008Z 16008KT 20/06 A2983 RMK A01 T02010057  RH  039%=      5-min Rain = 0
KWT1 200009Z 16008KT 20/06 A2983 RMK A01 T02000057  RH  039%=      5-min Rain = 0
KWT1 200010Z 16008KT 20/06 A2983 RMK A01 T01990057  RH  039%=      5-min Rain = 0
KWT1 200011Z 17008KT 20/06 A2983 RMK A01 T01980057  RH  040%=      5-min Rain = 0
KWT1 200012Z 16009KT 20/06 A2983 RMK A01 T01990058  RH  040%=      5-min Rain = 0
KWT1 200013Z 16009KT 20/06 A2983 RMK A01 T01990058  RH  040%=      5-min Rain = 0
KWT1 200014Z 16008KT 20/06 A2983 RMK A01 T01980058  RH  040%=      5-min Rain = 0
KWT1 200015Z 16009KT 20/06 A2983 RMK A01 T01980058  RH  040%=      5-min Rain = 0
KWT1 200016Z 16009KT 20/06 A2983 RMK A01 T01970059  RH  040%=      5-min Rain = 0
KWT1 200017Z 16009KT 20/06 A2983 RMK A01 T01960059  RH  041%=      5-min Rain = 0
KWT1 200018Z 16009KT 20/06 A2983 RMK A01 T01960059  RH  041%=      5-min Rain = 0
KWT1 200019Z 16009KT 20/06 A2983 RMK A01 T01950059  RH  041%=      5-min Rain = 0
KWT1 200020Z 16009KT 19/06 A2983 RMK A01 T01940059  RH  041%=      5-min Rain = 0
KWT1 200021Z 16009KT 19/06 A2983 RMK A01 T01930060  RH  042%=      5-min Rain = 0
KWT1 200022Z 16009KT 19/06 A2983 RMK A01 T01930060  RH  042%=      5-min Rain = 0
KWT1 200023Z 16009KT 19/06 A2983 RMK A01 T01920060  RH  042%=      5-min Rain = 0
KWT1 200024Z 16009KT 19/06 A2983 RMK A01 T01920061  RH  042%=      5-min Rain = 0
KWT1 200025Z 16009KT 19/06 A2983 RMK A01 T01910061  RH  042%=      5-min Rain = 0
KWT1 200026Z 16009KT 19/06 A2983 RMK A01 T01910060  RH  043%=      5-min Rain = 0
KWT1 200027Z 16008KT 19/06 A2983 RMK A01 T01910061  RH  043%=      5-min Rain = 0
KWT1 200028Z 16009KT 19/06 A2983 RMK A01 T01910061  RH  043%=      5-min Rain = 0
KWT1 200029Z 16008KT 19/06 A2983 RMK A01 T01900061  RH  043%=      5-min Rain = 0
KWT1 200030Z 16008KT 19/06 A2983 RMK A01 T01900061  RH  043%=      5-min Rain = 0
KWT1 200031Z 16008KT 19/06 A2983 RMK A01 T01890061  RH  043%=      5-min Rain = 0
KWT1 200032Z 16009KT 19/06 A2983 RMK A01 T01880061  RH  043%=      5-min Rain = 0
KWT1 200033Z 16008KT 19/06 A2983 RMK A01 T01880061  RH  043%=      5-min Rain = 0
KWT1 200034Z 16008KT 19/06 A2983 RMK A01 T01880061  RH  044%=      5-min Rain = 0
KWT1 200035Z 16008KT 19/06 A2983 RMK A01 T01870061  RH  044%=      5-min Rain = 0
KWT1 200036Z 16008KT 19/06 A2983 RMK A01 T01860061  RH  044%=      5-min Rain = 0
KWT1 200037Z 16008KT 19/06 A2983 RMK A01 T01850061  RH  044%=      5-min Rain = 0
KWT1 200038Z 16008KT 18/06 A2983 RMK A01 T01840061  RH  044%=      5-min Rain = 0
KWT1 200039Z 16008KT 18/06 A2983 RMK A01 T01840061  RH  045%=      5-min Rain = 0
KWT1 200040Z 16008KT 18/06 A2983 RMK A01 T01830061  RH  045%=      5-min Rain = 0
KWT1 200041Z 16008KT 18/06 A2983 RMK A01 T01830061  RH  045%=      5-min Rain = 0
KWT1 200042Z 16008KT 18/06 A2983 RMK A01 T01820061  RH  045%=      5-min Rain = 0
KWT1 200043Z 16008KT 18/06 A2983 RMK A01 T01820061  RH  045%=      5-min Rain = 0
KWT1 200044Z 16008KT 18/06 A2983 RMK A01 T01810061  RH  045%=      5-min Rain = 0
KWT1 200045Z 16008KT 18/06 A2983 RMK A01 T01800061  RH  046%=      5-min Rain = 0
KWT1 200046Z 16008KT 18/06 A2983 RMK A01 T01790061  RH  046%=      5-min Rain = 0
KWT1 200047Z 16008KT 18/06 A2983 RMK A01 T01780061  RH  046%=      5-min Rain = 0
KWT1 200048Z 16008KT 18/06 A2983 RMK A01 T01780061  RH  046%=      5-min Rain = 0
KWT1 200049Z 16008KT 18/06 A2983 RMK A01 T01770061  RH  047%=      5-min Rain = 0
KWT1 200050Z 16008KT 18/06 A2983 RMK A01 T01770062  RH  047%=      5-min Rain = 0
KWT1 200051Z 16008KT 18/06 A2984 RMK A01 T01760061  RH  047%=      5-min Rain = 0
KWT1 200052Z 16008KT 18/06 A2984 RMK A01 T01750061  RH  047%=      5-min Rain = 0
KWT1 200053Z 16008KT 18/06 A2984 RMK A01 T01750062  RH  047%=      5-min Rain = 0
KWT1 200054Z 16008KT 18/06 A2984 RMK A01 T01750061  RH  047%=      5-min Rain = 0
KWT1 200055Z 17008KT 17/06 A2984 RMK A01 T01740061  RH  047%=      5-min Rain = 0
KWT1 200056Z 17008KT 17/06 A2984 RMK A01 T01740062  RH  048%=      5-min Rain = 0
KWT1 200057Z 17008KT 17/06 A2984 RMK A01 T01740062  RH  048%=      5-min Rain = 0
KWT1 200058Z 17008KT 17/06 A2984 RMK A01 T01740062  RH  048%=      5-min Rain = 0
KWT1 200059Z 17008KT 18/06 A2984 RMK A01 T01750062  RH  047%=      5-min Rain = 0
KWT1 200100Z 17008KT 18/06 A2984 RMK A01 T01750062  RH  047%=      5-min Rain = 0
KWT1 200101Z 17008KT 18/06 A2984 RMK A01 T01750062  RH  047%=      5-min Rain = 0
KWT1 200102Z 17008KT 17/06 A2984 RMK A01 T01740062  RH  048%=      5-min Rain = 0
KWT1 200103Z 17008KT 17/06 A2984 RMK A01 T01740062  RH  048%=      5-min Rain = 0
KWT1 200104Z 17008KT 17/06 A2984 RMK A01 T01740062  RH  048%=      5-min Rain = 0
KWT1 200105Z 17008KT 17/06 A2984 RMK A01 T01730062  RH  048%=      5-min Rain = 0
KWT1 200106Z 16007KT 17/06 A2984 RMK A01 T01730062  RH  048%=      5-min Rain = 0
KWT1 200107Z 16008KT 17/06 A2984 RMK A01 T01730061  RH  048%=      5-min Rain = 0
KWT1 200108Z 16008KT 17/06 A2984 RMK A01 T01720061  RH  048%=      5-min Rain = 0
KWT1 200109Z 17008KT 17/06 A2984 RMK A01 T01720061  RH  048%=      5-min Rain = 0
KWT1 200110Z 17008KT 17/06 A2984 RMK A01 T01710061  RH  048%=      5-min Rain = 0
KWT1 200111Z 17008KT 17/06 A2984 RMK A01 T01700061  RH  049%=      5-min Rain = 0
KWT1 200112Z 17008KT 17/06 A2983 RMK A01 T01690061  RH  049%=      5-min Rain = 0
KWT1 200113Z 17008KT 17/06 A2983 RMK A01 T01690061  RH  049%=      5-min Rain = 0
KWT1 200114Z 16008KT 17/06 A2984 RMK A01 T01690061  RH  049%=      5-min Rain = 0
KWT1 200115Z 17009KT 17/06 A2984 RMK A01 T01690061  RH  049%=      5-min Rain = 0
KWT1 200116Z 17009KT 17/06 A2984 RMK A01 T01700061  RH  049%=      5-min Rain = 0
KWT1 200117Z 17009KT 17/06 A2984 RMK A01 T01710062  RH  049%=      5-min Rain = 0
KWT1 200118Z 17009KT 17/06 A2984 RMK A01 T01710062  RH  048%=      5-min Rain = 0
KWT1 200119Z 17009KT 17/06 A2984 RMK A01 T01720062  RH  048%=      5-min Rain = 0
KWT1 200120Z 17010KT 17/06 A2984 RMK A01 T01730062  RH  048%=      5-min Rain = 0
KWT1 200121Z 17009KT 17/06 A2984 RMK A01 T01730062  RH  048%=      5-min Rain = 0
KWT1 200122Z 17009KT 17/06 A2984 RMK A01 T01740062  RH  048%=      5-min Rain = 0
KWT1 200123Z 17009KT 17/06 A2984 RMK A01 T01740062  RH  048%=      5-min Rain = 0
KWT1 200124Z 17009KT 17/06 A2984 RMK A01 T01740062  RH  048%=      5-min Rain = 0
KWT1 200125Z 17009KT 17/06 A2984 RMK A01 T01740062  RH  048%=      5-min Rain = 0
KWT1 200126Z 17009KT 17/06 A2984 RMK A01 T01740062  RH  048%=      5-min Rain = 0
KWT1 200127Z 17010KT 17/06 A2984 RMK A01 T01740062  RH  048%=      5-min Rain = 0
KWT1 200128Z 17009KT 17/06 A2984 RMK A01 T01740063  RH  048%=      5-min Rain = 0
KWT1 200129Z 17009KT 18/06 A2984 RMK A01 T01750063  RH  048%=      5-min Rain = 0
KWT1 200130Z 17010KT 18/06 A2984 RMK A01 T01750063  RH  048%=      5-min Rain = 0
KWT1 200131Z 17010KT 18/06 A2984 RMK A01 T01750063  RH  048%=      5-min Rain = 0
KWT1 200132Z 17010KT 18/06 A2984 RMK A01 T01750063  RH  048%=      5-min Rain = 0
KWT1 200133Z 17010KT 18/06 A2984 RMK A01 T01760063  RH  048%=      5-min Rain = 0
KWT1 200134Z 17010KT 18/06 A2984 RMK A01 T01760063  RH  048%=      5-min Rain = 0
KWT1 200135Z 16010KT 18/06 A2984 RMK A01 T01760063  RH  048%=      5-min Rain = 0
KWT1 200136Z 17010KT 18/06 A2984 RMK A01 T01760063  RH  048%=      5-min Rain = 0
KWT1 200137Z 16010KT 18/06 A2984 RMK A01 T01760063  RH  048%=      5-min Rain = 0
KWT1 200138Z 17009KT 18/06 A2984 RMK A01 T01760063  RH  048%=      5-min Rain = 0
KWT1 200139Z 17009KT 18/06 A2984 RMK A01 T01760063  RH  048%=      5-min Rain = 0
KWT1 200140Z 17009KT 18/06 A2984 RMK A01 T01760064  RH  048%=      5-min Rain = 0
KWT1 200141Z 17010KT 18/06 A2984 RMK A01 T01760064  RH  048%=      5-min Rain = 0
KWT1 200142Z 17009KT 18/06 A2984 RMK A01 T01760064  RH  048%=      5-min Rain = 0
KWT1 200143Z 17009KT 18/06 A2984 RMK A01 T01760064  RH  048%=      5-min Rain = 0
KWT1 200144Z 17008KT 18/06 A2984 RMK A01 T01750063  RH  048%=      5-min Rain = 0
KWT1 200145Z 17010KT 18/06 A2984 RMK A01 T01750064  RH  048%=      5-min Rain = 0
KWT1 200146Z 17009KT 18/06 A2984 RMK A01 T01750064  RH  048%=      5-min Rain = 0
KWT1 200147Z 17009KT 18/06 A2984 RMK A01 T01760064  RH  048%=      5-min Rain = 0
KWT1 200148Z 17009KT 18/06 A2984 RMK A01 T01750064  RH  048%=      5-min Rain = 0
KWT1 200149Z 17009KT 18/06 A2984 RMK A01 T01760064  RH  048%=      5-min Rain = 0
KWT1 200150Z 17008KT 18/06 A2984 RMK A01 T01760064  RH  048%=      5-min Rain = 0
KWT1 200151Z 17009KT 18/06 A2984 RMK A01 T01770064  RH  048%=      5-min Rain = 0
KWT1 200152Z 17009KT 18/07 A2984 RMK A01 T01770065  RH  048%=      5-min Rain = 0
KWT1 200153Z 17010KT 18/07 A2984 RMK A01 T01770065  RH  048%=      5-min Rain = 0
KWT1 200154Z 17010KT 18/07 A2984 RMK A01 T01780065  RH  047%=      5-min Rain = 0
KWT1 200155Z 17010KT 18/07 A2984 RMK A01 T01780065  RH  047%=      5-min Rain = 0
KWT1 200156Z 18011KT 18/07 A2984 RMK A01 T01790065  RH  047%=      5-min Rain = 0
KWT1 200157Z 17011KT 18/07 A2984 RMK A01 T01800065  RH  047%=      5-min Rain = 0
KWT1 200158Z 18010KT 18/07 A2984 RMK A01 T01810065  RH  047%=      5-min Rain = 0
KWT1 200159Z 18009KT 18/07 A2984 RMK A01 T01810066  RH  047%=      5-min Rain = 0
KWT1 200200Z 18009KT 18/07 A2984 RMK A01 T01810066  RH  047%=      5-min Rain = 0
KWT1 200201Z 18010KT 18/07 A2984 RMK A01 T01810066  RH  047%=      5-min Rain = 0
KWT1 200202Z 18010KT 18/07 A2984 RMK A01 T01820066  RH  047%=      5-min Rain = 0
KWT1 200203Z 18010KT 18/07 A2984 RMK A01 T01820066  RH  047%=      5-min Rain = 0
KWT1 200204Z 18011KT 18/07 A2984 RMK A01 T01820067  RH  047%=      5-min Rain = 0
KWT1 200205Z 18009KT 18/07 A2984 RMK A01 T01820067  RH  047%=      5-min Rain = 0
KWT1 200206Z 18011KT 18/07 A2984 RMK A01 T01820067  RH  047%=      5-min Rain = 0
KWT1 200207Z 18009KT 18/07 A2984 RMK A01 T01820068  RH  047%=      5-min Rain = 0
KWT1 200208Z 18010KT 18/07 A2985 RMK A01 T01820068  RH  047%=      5-min Rain = 0
KWT1 200209Z 18011KT 18/07 A2985 RMK A01 T01820068  RH  047%=      5-min Rain = 0
KWT1 200210Z 18010KT 18/07 A2985 RMK A01 T01820067  RH  047%=      5-min Rain = 0
KWT1 200211Z 18010KT 18/07 A2985 RMK A01 T01820068  RH  047%=      5-min Rain = 0
KWT1 200212Z 18010KT 18/07 A2984 RMK A01 T01810067  RH  047%=      5-min Rain = 0
KWT1 200213Z 18010KT 18/07 A2985 RMK A01 T01820068  RH  047%=      5-min Rain = 0
KWT1 200214Z 18010KT 18/07 A2985 RMK A01 T01810068  RH  047%=      5-min Rain = 0
KWT1 200215Z 18011KT 18/07 A2985 RMK A01 T01810068  RH  048%=      5-min Rain = 0
KWT1 200216Z 17011KT 18/07 A2985 RMK A01 T01810068  RH  048%=      5-min Rain = 0
KWT1 200217Z 18011KT 18/07 A2985 RMK A01 T01810068  RH  048%=      5-min Rain = 0
KWT1 200218Z 18012KT 18/07 A2985 RMK A01 T01810069  RH  048%=      5-min Rain = 0
KWT1 200219Z 18010KT 18/07 A2984 RMK A01 T01810069  RH  048%=      5-min Rain = 0
KWT1 200220Z 18011KT 18/07 A2984 RMK A01 T01810069  RH  048%=      5-min Rain = 0
KWT1 200221Z 18011KT 18/07 A2985 RMK A01 T01810069  RH  048%=      5-min Rain = 0
KWT1 200222Z 18011KT 18/07 A2985 RMK A01 T01800069  RH  048%=      5-min Rain = 0
KWT1 200223Z 18012KT 18/07 A2985 RMK A01 T01800069  RH  048%=      5-min Rain = 0
KWT1 200224Z 18012KT 18/07 A2985 RMK A01 T01810069  RH  048%=      5-min Rain = 0
KWT1 200225Z 18012KT 18/07 A2985 RMK A01 T01810069  RH  048%=      5-min Rain = 0
KWT1 200226Z 18012KT 18/07 A2985 RMK A01 T01810069  RH  048%=      5-min Rain = 0
KWT1 200227Z 18012KT 18/07 A2985 RMK A01 T01810069  RH  048%=      5-min Rain = 0
KWT1 200228Z 18012KT 18/07 A2985 RMK A01 T01810069  RH  048%=      5-min Rain = 0
KWT1 200229Z 18011KT 18/07 A2985 RMK A01 T01810070  RH  048%=      5-min Rain = 0
KWT1 200230Z 18010KT 18/07 A2985 RMK A01 T01800070  RH  048%=      5-min Rain = 0
KWT1 200231Z 18011KT 18/07 A2985 RMK A01 T01790070  RH  049%=      5-min Rain = 0
KWT1 200232Z 18012KT 18/07 A2985 RMK A01 T01790070  RH  049%=      5-min Rain = 0
KWT1 200233Z 18012KT 18/07 A2985 RMK A01 T01790070  RH  049%=      5-min Rain = 0
KWT1 200234Z 18011KT 18/07 A2985 RMK A01 T01790070  RH  049%=      5-min Rain = 0
KWT1 200235Z 18012KT 18/07 A2985 RMK A01 T01790070  RH  049%=      5-min Rain = 0
KWT1 200236Z 18011KT 18/07 A2985 RMK A01 T01790071  RH  049%=      5-min Rain = 0
KWT1 200237Z 18013KT 18/07 A2985 RMK A01 T01800071  RH  049%=      5-min Rain = 0
KWT1 200238Z 18010KT 18/07 A2985 RMK A01 T01800071  RH  049%=      5-min Rain = 0
KWT1 200239Z 18010KT 18/07 A2985 RMK A01 T01800071  RH  049%=      5-min Rain = 0
KWT1 200240Z 18012KT 18/07 A2985 RMK A01 T01800071  RH  049%=      5-min Rain = 0
KWT1 200241Z 18011KT 18/07 A2985 RMK A01 T01800071  RH  049%=      5-min Rain = 0
KWT1 200242Z 18010KT 18/07 A2985 RMK A01 T01800071  RH  049%=      5-min Rain = 0
KWT1 200243Z 18011KT 18/07 A2985 RMK A01 T01800072  RH  049%=      5-min Rain = 0
KWT1 200244Z 18011KT 18/07 A2985 RMK A01 T01800071  RH  049%=      5-min Rain = 0
KWT1 200245Z 18010KT 18/07 A2985 RMK A01 T01800072  RH  049%=      5-min Rain = 0
KWT1 200246Z 18010KT 18/07 A2985 RMK A01 T01790072  RH  049%=      5-min Rain = 0
KWT1 200247Z 18010KT 18/07 A2985 RMK A01 T01780071  RH  050%=      5-min Rain = 0
KWT1 200248Z 18010KT 18/07 A2985 RMK A01 T01780072  RH  050%=      5-min Rain = 0
KWT1 200249Z 18012KT 18/07 A2985 RMK A01 T01780072  RH  050%=      5-min Rain = 0
KWT1 200250Z 18011KT 18/07 A2985 RMK A01 T01780072  RH  050%=      5-min Rain = 0
KWT1 200251Z 18011KT 18/07 A2985 RMK A01 T01780072  RH  050%=      5-min Rain = 0
KWT1 200252Z 18011KT 18/07 A2985 RMK A01 T01780072  RH  050%=      5-min Rain = 0
KWT1 200253Z 18010KT 18/07 A2985 RMK A01 T01780073  RH  050%=      5-min Rain = 0
KWT1 200254Z 18012G17KT 18/07 A2984 RMK A01 T01790073  RH  050%=      5-min Rain = 0
KWT1 200255Z 18011KT 18/07 A2984 RMK A01 T01790073  RH  050%=      5-min Rain = 0
KWT1 200256Z 18011KT 18/07 A2984 RMK A01 T01800073  RH  050%=      5-min Rain = 0
KWT1 200257Z 18010KT 18/07 A2984 RMK A01 T01800074  RH  050%=      5-min Rain = 0
KWT1 200258Z 18011KT 18/07 A2984 RMK A01 T01790073  RH  050%=      5-min Rain = 0
KWT1 200259Z 18010KT 18/07 A2985 RMK A01 T01790074  RH  050%=      5-min Rain = 0
KWT1 200300Z 18011KT 18/07 A2985 RMK A01 T01790074  RH  050%=      5-min Rain = 0
KWT1 200301Z 18012KT 18/07 A2985 RMK A01 T01790074  RH  050%=      5-min Rain = 0
KWT1 200302Z 18012KT 18/07 A2985 RMK A01 T01790074  RH  050%=      5-min Rain = 0
KWT1 200303Z 18012KT 18/07 A2985 RMK A01 T01790074  RH  050%=      5-min Rain = 0
KWT1 200304Z 18012KT 18/08 A2985 RMK A01 T01800075  RH  050%=      5-min Rain = 0
KWT1 200305Z 18012KT 18/08 A2985 RMK A01 T01800075  RH  050%=      5-min Rain = 0
KWT1 200306Z 18010KT 18/08 A2985 RMK A01 T01800075  RH  050%=      5-min Rain = 0
KWT1 200307Z 18009KT 18/08 A2985 RMK A01 T01790075  RH  050%=      5-min Rain = 0
KWT1 200308Z 18011KT 18/07 A2985 RMK A01 T01780074  RH  051%=      5-min Rain = 0
KWT1 200309Z 18011KT 18/08 A2985 RMK A01 T01780075  RH  051%=      5-min Rain = 0
KWT1 200310Z 18011KT 18/08 A2985 RMK A01 T01780075  RH  051%=      5-min Rain = 0
KWT1 200311Z 18010KT 18/08 A2985 RMK A01 T01780075  RH  051%=      5-min Rain = 0
KWT1 200312Z 18010KT 18/08 A2985 RMK A01 T01770075  RH  051%=      5-min Rain = 0
KWT1 200313Z 18010KT 18/08 A2985 RMK A01 T01770075  RH  051%=      5-min Rain = 0
KWT1 200314Z 18010KT 18/08 A2985 RMK A01 T01760075  RH  052%=      5-min Rain = 0
KWT1 200315Z 19010KT 18/08 A2985 RMK A01 T01760075  RH  052%=      5-min Rain = 0
KWT1 200316Z 19011KT 18/08 A2985 RMK A01 T01760075  RH  052%=      5-min Rain = 0
KWT1 200317Z 18011G16KT 18/08 A2985 RMK A01 T01750075  RH  052%=      5-min Rain = 0
KWT1 200318Z 19011KT 18/08 A2986 RMK A01 T01760076  RH  052%=      5-min Rain = 0
KWT1 200319Z 19010KT 18/08 A2986 RMK A01 T01760075  RH  052%=      5-min Rain = 0
KWT1 200320Z 19010KT 18/08 A2986 RMK A01 T01750075  RH  052%=      5-min Rain = 0
KWT1 200321Z 18011KT 17/08 A2986 RMK A01 T01740075  RH  052%=      5-min Rain = 0
KWT1 200322Z 18010KT 17/08 A2986 RMK A01 T01740076  RH  053%=      5-min Rain = 0
KWT1 200323Z 18010KT 17/08 A2986 RMK A01 T01740076  RH  053%=      5-min Rain = 0
KWT1 200324Z 18010KT 17/08 A2986 RMK A01 T01740076  RH  053%=      5-min Rain = 0
KWT1 200325Z 18010KT 17/08 A2986 RMK A01 T01730076  RH  053%=      5-min Rain = 0
KWT1 200326Z 18011KT 17/08 A2986 RMK A01 T01730076  RH  053%=      5-min Rain = 0
KWT1 200327Z 18011KT 17/08 A2986 RMK A01 T01730077  RH  053%=      5-min Rain = 0
KWT1 200328Z 18010KT 17/08 A2986 RMK A01 T01730076  RH  053%=      5-min Rain = 0
KWT1 200329Z 19010KT 17/08 A2986 RMK A01 T01730077  RH  053%=      5-min Rain = 0
KWT1 200330Z 18010KT 17/08 A2986 RMK A01 T01730077  RH  053%=      5-min Rain = 0
KWT1 200331Z 18010KT 17/08 A2986 RMK A01 T01730077  RH  053%=      5-min Rain = 0
KWT1 200332Z 18011KT 17/08 A2986 RMK A01 T01730077  RH  053%=      5-min Rain = 0
KWT1 200333Z 18010KT 17/08 A2986 RMK A01 T01730077  RH  053%=      5-min Rain = 0
KWT1 200334Z 18009KT 17/08 A2986 RMK A01 T01720077  RH  053%=      5-min Rain = 0
KWT1 200335Z 18009KT 17/08 A2986 RMK A01 T01720077  RH  054%=      5-min Rain = 0
KWT1 200336Z 18010KT 17/08 A2986 RMK A01 T01710077  RH  054%=      5-min Rain = 0
KWT1 200337Z 18010KT 17/08 A2986 RMK A01 T01700077  RH  054%=      5-min Rain = 0
KWT1 200338Z 18010KT 17/08 A2986 RMK A01 T01710077  RH  054%=      5-min Rain = 0
KWT1 200339Z 18010KT 17/08 A2986 RMK A01 T01710078  RH  054%=      5-min Rain = 0
KWT1 200340Z 18009KT 17/08 A2986 RMK A01 T01710077  RH  054%=      5-min Rain = 0
KWT1 200341Z 18010KT 17/08 A2986 RMK A01 T01700077  RH  054%=      5-min Rain = 0
KWT1 200342Z 18010KT 17/08 A2986 RMK A01 T01700078  RH  054%=      5-min Rain = 0
KWT1 200343Z 18009KT 17/08 A2986 RMK A01 T01700077  RH  054%=      5-min Rain = 0
KWT1 200344Z 18009KT 17/08 A2986 RMK A01 T01690077  RH  055%=      5-min Rain = 0
KWT1 200345Z 18010KT 17/08 A2986 RMK A01 T01690078  RH  055%=      5-min Rain = 0
KWT1 200346Z 18009KT 17/08 A2986 RMK A01 T01690078  RH  055%=      5-min Rain = 0
KWT1 200347Z 18009KT 17/08 A2986 RMK A01 T01680078  RH  055%=      5-min Rain = 0
KWT1 200348Z 18010KT 17/08 A2986 RMK A01 T01680078  RH  055%=      5-min Rain = 0
KWT1 200349Z 18009KT 17/08 A2986 RMK A01 T01680078  RH  055%=      5-min Rain = 0
KWT1 200350Z 17009KT 17/08 A2986 RMK A01 T01670078  RH  055%=      5-min Rain = 0
KWT1 200351Z 18008KT 17/08 A2986 RMK A01 T01670078  RH  056%=      5-min Rain = 0
KWT1 200352Z 18009KT 17/08 A2986 RMK A01 T01670078  RH  056%=      5-min Rain = 0
KWT1 200353Z 18009KT 17/08 A2986 RMK A01 T01670078  RH  056%=      5-min Rain = 0
KWT1 200354Z 18009KT 17/08 A2986 RMK A01 T01670078  RH  056%=      5-min Rain = 0
KWT1 200355Z 18009KT 17/08 A2986 RMK A01 T01660078  RH  056%=      5-min Rain = 0
KWT1 200356Z 18008KT 17/08 A2986 RMK A01 T01660078  RH  056%=      5-min Rain = 0
KWT1 200357Z 18009KT 17/08 A2986 RMK A01 T01650078  RH  056%=      5-min Rain = 0
KWT1 200358Z 18009KT 17/08 A2986 RMK A01 T01650078  RH  057%=      5-min Rain = 0
KWT1 200359Z 18008KT 16/08 A2986 RMK A01 T01640078  RH  057%=      5-min Rain = 0
KWT1 200400Z 18009KT 16/08 A2986 RMK A01 T01640078  RH  057%=      5-min Rain = 0
KWT1 200401Z 18009KT 16/08 A2986 RMK A01 T01640079  RH  057%=      5-min Rain = 0
KWT1 200402Z 18009KT 16/08 A2986 RMK A01 T01630078  RH  057%=      5-min Rain = 0
KWT1 200403Z 18009KT 16/08 A2986 RMK A01 T01620078  RH  058%=      5-min Rain = 0
KWT1 200404Z 18009KT 16/08 A2986 RMK A01 T01620078  RH  058%=      5-min Rain = 0
KWT1 200405Z 18010KT 16/08 A2986 RMK A01 T01620079  RH  058%=      5-min Rain = 0
KWT1 200406Z 19010KT 16/08 A2986 RMK A01 T01610078  RH  058%=      5-min Rain = 0
KWT1 200407Z 19010KT 16/08 A2986 RMK A01 T01610079  RH  058%=      5-min Rain = 0
KWT1 200408Z 19009KT 16/08 A2986 RMK A01 T01610079  RH  058%=      5-min Rain = 0
KWT1 200409Z 18010KT 16/08 A2987 RMK A01 T01600079  RH  058%=      5-min Rain = 0
KWT1 200410Z 19009KT 16/08 A2987 RMK A01 T01600079  RH  058%=      5-min Rain = 0
KWT1 200411Z 19009KT 16/08 A2987 RMK A01 T01600079  RH  059%=      5-min Rain = 0
KWT1 200412Z 19009KT 16/08 A2987 RMK A01 T01590078  RH  059%=      5-min Rain = 0
KWT1 200413Z 19009KT 16/08 A2986 RMK A01 T01580078  RH  059%=      5-min Rain = 0
KWT1 200414Z 19008KT 16/08 A2986 RMK A01 T01570078  RH  059%=      5-min Rain = 0
KWT1 200415Z 19008KT 16/08 A2986 RMK A01 T01560078  RH  060%=      5-min Rain = 0
KWT1 200416Z 19007KT 16/08 A2986 RMK A01 T01550078  RH  060%=      5-min Rain = 0
KWT1 200417Z 19009KT 16/08 A2986 RMK A01 T01550078  RH  060%=      5-min Rain = 0
KWT1 200418Z 18008KT 15/08 A2986 RMK A01 T01540078  RH  060%=      5-min Rain = 0
KWT1 200419Z 18009KT 15/08 A2986 RMK A01 T01540078  RH  061%=      5-min Rain = 0
KWT1 200420Z 18009KT 15/08 A2986 RMK A01 T01530078  RH  061%=      5-min Rain = 0
KWT1 200421Z 18008KT 15/08 A2986 RMK A01 T01530078  RH  061%=      5-min Rain = 0
KWT1 200422Z 18008KT 15/08 A2986 RMK A01 T01530078  RH  061%=      5-min Rain = 0
KWT1 200423Z 18008KT 15/08 A2986 RMK A01 T01530079  RH  061%=      5-min Rain = 0
KWT1 200424Z 18007KT 15/08 A2986 RMK A01 T01530078  RH  061%=      5-min Rain = 0
KWT1 200425Z 18008KT 15/08 A2986 RMK A01 T01520078  RH  061%=      5-min Rain = 0
KWT1 200426Z 18007KT 15/08 A2986 RMK A01 T01520079  RH  061%=      5-min Rain = 0
KWT1 200427Z 18007KT 15/08 A2986 RMK A01 T01520079  RH  062%=      5-min Rain = 0
KWT1 200428Z 18008KT 15/08 A2986 RMK A01 T01520079  RH  062%=      5-min Rain = 0
KWT1 200429Z 18007KT 15/08 A2986 RMK A01 T01520079  RH  062%=      5-min Rain = 0
KWT1 200430Z 18007KT 15/08 A2986 RMK A01 T01520079  RH  062%=      5-min Rain = 0
KWT1 200431Z 18007KT 15/08 A2986 RMK A01 T01520079  RH  062%=      5-min Rain = 0
KWT1 200432Z 17008KT 15/08 A2986 RMK A01 T01520079  RH  062%=      5-min Rain = 0
KWT1 200433Z 18007KT 15/08 A2986 RMK A01 T01520080  RH  062%=      5-min Rain = 0
KWT1 200434Z 17007KT 15/08 A2986 RMK A01 T01510080  RH  062%=      5-min Rain = 0
KWT1 200435Z 17008KT 15/08 A2986 RMK A01 T01510080  RH  062%=      5-min Rain = 0
KWT1 200436Z 17007KT 15/08 A2986 RMK A01 T01510080  RH  063%=      5-min Rain = 0
KWT1 200437Z 18007KT 15/08 A2986 RMK A01 T01510080  RH  063%=      5-min Rain = 0
KWT1 200438Z 17008KT 15/08 A2986 RMK A01 T01500080  RH  063%=      5-min Rain = 0
KWT1 200439Z 18007KT 15/08 A2986 RMK A01 T01500080  RH  063%=      5-min Rain = 0
KWT1 200440Z 17008KT 15/08 A2986 RMK A01 T01490080  RH  063%=      5-min Rain = 0
KWT1 200441Z 17007KT 15/08 A2986 RMK A01 T01500080  RH  063%=      5-min Rain = 0
KWT1 200442Z 18008KT 15/08 A2986 RMK A01 T01500080  RH  063%=      5-min Rain = 0
KWT1 200443Z 17007KT 15/08 A2986 RMK A01 T01500081  RH  063%=      5-min Rain = 0
KWT1 200444Z 17008KT 15/08 A2986 RMK A01 T01500081  RH  063%=      5-min Rain = 0
KWT1 200445Z 17008KT 15/08 A2986 RMK A01 T01510082  RH  063%=      5-min Rain = 0
KWT1 200446Z 17008KT 15/08 A2986 RMK A01 T01510081  RH  063%=      5-min Rain = 0
KWT1 200447Z 17007KT 15/08 A2986 RMK A01 T01510082  RH  063%=      5-min Rain = 0
KWT1 200448Z 18008KT 15/08 A2986 RMK A01 T01510082  RH  063%=      5-min Rain = 0
KWT1 200449Z 18008KT 15/08 A2986 RMK A01 T01510082  RH  063%=      5-min Rain = 0
KWT1 200450Z 18008KT 15/08 A2986 RMK A01 T01510082  RH  063%=      5-min Rain = 0
KWT1 200451Z 18007KT 15/08 A2986 RMK A01 T01510083  RH  064%=      5-min Rain = 0
KWT1 200452Z 18008KT 15/08 A2986 RMK A01 T01510083  RH  064%=      5-min Rain = 0
KWT1 200453Z 18008KT 15/08 A2986 RMK A01 T01510083  RH  064%=      5-min Rain = 0
KWT1 200454Z 18008KT 15/08 A2986 RMK A01 T01510084  RH  064%=      5-min Rain = 0
KWT1 200455Z 18008KT 15/09 A2986 RMK A01 T01520085  RH  064%=      5-min Rain = 0
KWT1 200456Z 18009KT 15/09 A2985 RMK A01 T01520085  RH  064%=      5-min Rain = 0
KWT1 200457Z 18009KT 15/09 A2985 RMK A01 T01530085  RH  064%=      5-min Rain = 0
KWT1 200458Z 18009KT 15/09 A2985 RMK A01 T01540086  RH  064%=      5-min Rain = 0
KWT1 200459Z 18008KT 16/09 A2985 RMK A01 T01550086  RH  064%=      5-min Rain = 0
KWT1 200500Z 18009KT 16/09 A2985 RMK A01 T01550086  RH  064%=      5-min Rain = 0
KWT1 200501Z 18010KT 16/09 A2985 RMK A01 T01550087  RH  064%=      5-min Rain = 0
KWT1 200502Z 18009KT 16/09 A2985 RMK A01 T01560087  RH  064%=      5-min Rain = 0
KWT1 200503Z 18009KT 16/09 A2985 RMK A01 T01560087  RH  063%=      5-min Rain = 0
KWT1 200504Z 18011KT 16/09 A2985 RMK A01 T01560087  RH  064%=      5-min Rain = 0
KWT1 200505Z 18009KT 16/09 A2985 RMK A01 T01570088  RH  064%=      5-min Rain = 0
KWT1 200506Z 18009KT 16/09 A2985 RMK A01 T01570088  RH  063%=      5-min Rain = 0
KWT1 200507Z 18010KT 16/09 A2985 RMK A01 T01570089  RH  064%=      5-min Rain = 0
KWT1 200508Z 18009KT 16/09 A2986 RMK A01 T01570089  RH  064%=      5-min Rain = 0
KWT1 200509Z 18009KT 16/09 A2986 RMK A01 T01570088  RH  064%=      5-min Rain = 0
KWT1 200510Z 19010KT 16/09 A2986 RMK A01 T01570089  RH  064%=      5-min Rain = 0
KWT1 200511Z 18010KT 16/09 A2986 RMK A01 T01570089  RH  064%=      5-min Rain = 0
KWT1 200512Z 18010KT 16/09 A2986 RMK A01 T01570089  RH  064%=      5-min Rain = 0
KWT1 200513Z 18008KT 16/09 A2986 RMK A01 T01570089  RH  064%=      5-min Rain = 0
KWT1 200514Z 18009KT 16/09 A2986 RMK A01 T01570089  RH  064%=      5-min Rain = 0
KWT1 200515Z 19009KT 16/09 A2986 RMK A01 T01570089  RH  064%=      5-min Rain = 0
KWT1 200516Z 19009KT 16/09 A2986 RMK A01 T01560089  RH  064%=      5-min Rain = 0
KWT1 200517Z 19009KT 16/09 A2986 RMK A01 T01560089  RH  064%=      5-min Rain = 0
KWT1 200518Z 19009KT 16/09 A2986 RMK A01 T01560089  RH  064%=      5-min Rain = 0
KWT1 200519Z 19010KT 16/09 A2986 RMK A01 T01560089  RH  065%=      5-min Rain = 0
KWT1 200520Z 20010KT 16/09 A2986 RMK A01 T01550089  RH  065%=      5-min Rain = 0
KWT1 200521Z 19009KT 16/09 A2986 RMK A01 T01550089  RH  065%=      5-min Rain = 0
KWT1 200522Z 19010KT 16/09 A2986 RMK A01 T01550089  RH  065%=      5-min Rain = 0
KWT1 200523Z 19010KT 15/09 A2986 RMK A01 T01540089  RH  065%=      5-min Rain = 0
KWT1 200524Z 20010KT 15/09 A2986 RMK A01 T01540090  RH  065%=      5-min Rain = 0
KWT1 200525Z 19010KT 15/09 A2986 RMK A01 T01540090  RH  065%=      5-min Rain = 0
KWT1 200526Z 20010KT 15/09 A2986 RMK A01 T01540090  RH  065%=      5-min Rain = 0
KWT1 200527Z 20010KT 15/09 A2986 RMK A01 T01540090  RH  066%=      5-min Rain = 0
KWT1 200528Z 19010KT 15/09 A2986 RMK A01 T01530090  RH  066%=      5-min Rain = 0
KWT1 200529Z 20010KT 15/09 A2986 RMK A01 T01530090  RH  066%=      5-min Rain = 0
KWT1 200530Z 20009KT 15/09 A2986 RMK A01 T01530090  RH  066%=      5-min Rain = 0
KWT1 200531Z 19009KT 15/09 A2986 RMK A01 T01530090  RH  066%=      5-min Rain = 0
KWT1 200532Z 20009KT 15/09 A2986 RMK A01 T01530090  RH  066%=      5-min Rain = 0
KWT1 200533Z 20009KT 15/09 A2986 RMK A01 T01520090  RH  066%=      5-min Rain = 0
KWT1 200534Z 19010KT 15/09 A2986 RMK A01 T01520090  RH  067%=      5-min Rain = 0
KWT1 200535Z 19010KT 15/09 A2986 RMK A01 T01520091  RH  067%=      5-min Rain = 0
KWT1 200536Z 19009KT 15/09 A2986 RMK A01 T01520091  RH  067%=      5-min Rain = 0
KWT1 200537Z 19009KT 15/09 A2986 RMK A01 T01520091  RH  067%=      5-min Rain = 0
KWT1 200538Z 19010KT 15/09 A2986 RMK A01 T01520091  RH  067%=      5-min Rain = 0
KWT1 200539Z 19009KT 15/09 A2986 RMK A01 T01520091  RH  067%=      5-min Rain = 0
KWT1 200540Z 19010KT 15/09 A2986 RMK A01 T01520091  RH  067%=      5-min Rain = 0
KWT1 200541Z 19010KT 15/09 A2986 RMK A01 T01530091  RH  067%=      5-min Rain = 0
KWT1 200542Z 19009KT 15/09 A2986 RMK A01 T01530091  RH  067%=      5-min Rain = 0
KWT1 200543Z 19009KT 15/09 A2986 RMK A01 T01530091  RH  067%=      5-min Rain = 0
KWT1 200544Z 19010KT 15/09 A2986 RMK A01 T01520091  RH  067%=      5-min Rain = 0
KWT1 200545Z 19010KT 15/09 A2986 RMK A01 T01530092  RH  067%=      5-min Rain = 0
KWT1 200546Z 19010KT 15/09 A2986 RMK A01 T01520091  RH  067%=      5-min Rain = 0
KWT1 200547Z 18010KT 15/09 A2986 RMK A01 T01520091  RH  067%=      5-min Rain = 0
KWT1 200548Z 19009KT 15/09 A2986 RMK A01 T01530092  RH  067%=      5-min Rain = 0
KWT1 200549Z 19009KT 15/09 A2986 RMK A01 T01530092  RH  067%=      5-min Rain = 0
KWT1 200550Z 19009KT 15/09 A2986 RMK A01 T01530092  RH  067%=      5-min Rain = 0
KWT1 200551Z 19009KT 15/09 A2986 RMK A01 T01530092  RH  067%=      5-min Rain = 0
KWT1 200552Z 19010KT 15/09 A2986 RMK A01 T01530092  RH  067%=      5-min Rain = 0
KWT1 200553Z 18010KT 15/09 A2986 RMK A01 T01540093  RH  067%=      5-min Rain = 0
KWT1 200554Z 19009KT 15/09 A2986 RMK A01 T01530092  RH  067%=      5-min Rain = 0
KWT1 200555Z 18009KT 15/09 A2986 RMK A01 T01540092  RH  067%=      5-min Rain = 0
KWT1 200556Z 18009KT 15/09 A2986 RMK A01 T01530092  RH  067%=      5-min Rain = 0
KWT1 200557Z 18009KT 15/09 A2986 RMK A01 T01530092  RH  067%=      5-min Rain = 0
KWT1 200558Z 18010KT 15/09 A2986 RMK A01 T01540093  RH  067%=      5-min Rain = 0
KWT1 200559Z 18009KT 15/09 A2986 RMK A01 T01530093  RH  067%=      5-min Rain = 0

Page generated in 0.1204 seconds.